| time (UTC) | temp C | wind direction | speed KPH | gust KPH | rain 1hr cm | rain 24hr cm | rain mn cm | humidity % | barometer mb |
| 20260906083437 | 17 | 216 | 1.6 | 6.4 | 0.00 | 0.66 | 0.00 | 74 | 1015.2 |
| 20260906083337 | 17 | 192 | 1.6 | 6.4 | 0.00 | 0.66 | 0.00 | 74 | 1015.2 |
| 20260906083237 | 17 | 180 | 1.6 | 4.8 | 0.00 | 0.66 | 0.00 | 74 | 1015.2 |
| 20260906083135 | 17 | 180 | 1.6 | 4.8 | 0.00 | 0.66 | 0.00 | 74 | 1015.1 |
| 20260906083035 | 17 | 180 | 1.6 | 4.8 | 0.00 | 0.66 | 0.00 | 74 | 1015.2 |
| 20260906082934 | 17 | 180 | 1.6 | 4.8 | 0.00 | 0.66 | 0.00 | 74 | 1015.1 |
| 20260906082832 | 17 | 180 | 1.6 | 4.8 | 0.00 | 0.66 | 0.00 | 74 | 1015.2 |
| 20260906082733 | 17 | 180 | 1.6 | 4.8 | 0.00 | 0.66 | 0.00 | 74 | 1015.2 |
| 20260906082632 | 17 | 180 | 1.6 | 4.8 | 0.00 | 0.66 | 0.00 | 74 | 1015.2 |
| 20260906082531 | 17 | 180 | 1.6 | 4.8 | 0.00 | 0.66 | 0.00 | 74 | 1015.2 |
| 20260906082430 | 17 | 265 | 1.6 | 4.8 | 0.00 | 0.66 | 0.00 | 74 | 1015.2 |
| 20260906082326 | 17 | 280 | 1.6 | 4.8 | 0.00 | 0.66 | 0.00 | 74 | 1015.2 |
| 20260906082227 | 17 | 268 | 1.6 | 4.8 | 0.00 | 0.66 | 0.00 | 74 | 1015.2 |
| 20260906082127 | 17 | 180 | 1.6 | 4.8 | 0.00 | 0.66 | 0.00 | 74 | 1015.2 |
| 20260906082026 | 17 | 180 | 1.6 | 6.4 | 0.00 | 0.66 | 0.00 | 75 | 1015.2 |
| 20260906081925 | 17 | 180 | 1.6 | 6.4 | 0.00 | 0.66 | 0.00 | 74 | 1015.2 |
| 20260906081824 | 17 | 180 | 1.6 | 6.4 | 0.00 | 0.66 | 0.00 | 75 | 1015.2 |
| 20260906081721 | 17 | 180 | 1.6 | 6.4 | 0.00 | 0.66 | 0.00 | 74 | 1015.2 |
| 20260906081623 | 17 | 180 | 1.6 | 6.4 | 0.00 | 0.66 | 0.00 | 74 | 1015.2 |
| 20260906081521 | 17 | 180 | 1.6 | 6.4 | 0.00 | 0.66 | 0.00 | 74 | 1015.2 |
| 20260906081420 | 17 | 180 | 1.6 | 6.4 | 0.00 | 0.66 | 0.00 | 74 | 1015.2 |
| 20260906081319 | 17 | 260 | 1.6 | 6.4 | 0.00 | 0.66 | 0.00 | 74 | 1015.1 |
| 20260906081219 | 17 | 180 | 1.6 | 6.4 | 0.00 | 0.66 | 0.00 | 74 | 1015.1 |
| 20260906081113 | 17 | 263 | 1.6 | 4.8 | 0.00 | 0.66 | 0.00 | 74 | 1015.1 |
| 20260906081013 | 17 | 263 | 1.6 | 4.8 | 0.00 | 0.66 | 0.00 | 74 | 1015.1 |
| 20260906080910 | 17 | 180 | 1.6 | 4.8 | 0.00 | 0.66 | 0.00 | 74 | 1015.1 |
| 20260906080810 | 17 | 265 | 1.6 | 4.8 | 0.00 | 0.66 | 0.00 | 74 | 1015.1 |
| 20260906080710 | 17 | 180 | 1.6 | 4.8 | 0.00 | 0.66 | 0.00 | 74 | 1015.1 |
| 20260906080609 | 17 | 180 | 1.6 | 4.8 | 0.00 | 0.66 | 0.00 | 74 | 1015.2 |
| 20260906080502 | 17 | 258 | 1.6 | 4.8 | 0.00 | 0.66 | 0.00 | 74 | 1015.2 |
| 20260906080403 | 17 | 180 | 1.6 | 4.8 | 0.00 | 0.66 | 0.00 | 74 | 1015.2 |
| 20260906080300 | 17 | 180 | 1.6 | 4.8 | 0.00 | 0.66 | 0.00 | 74 | 1015.2 |
| 20260906080201 | 17 | 211 | 1.6 | 4.8 | 0.00 | 0.66 | 0.00 | 74 | 1015.3 |
| 20260906080057 | 17 | 180 | 1.6 | 4.8 | 0.00 | 0.66 | 0.00 | 74 | 1015.2 |
| 20260906075958 | 17 | 180 | 1.6 | 4.8 | 0.00 | 0.66 | 0.00 | 74 | 1015.2 |
| 20260906075858 | 17 | 180 | 1.6 | 4.8 | 0.00 | 0.66 | 0.00 | 74 | 1015.2 |
| 20260906075757 | 17 | 180 | 1.6 | 4.8 | 0.00 | 0.66 | 0.00 | 74 | 1015.2 |
| 20260906075655 | 17 | 180 | 1.6 | 4.8 | 0.00 | 0.66 | 0.00 | 74 | 1015.2 |
| 20260906075554 | 17 | 180 | 1.6 | 4.8 | 0.00 | 0.66 | 0.00 | 74 | 1015.2 |
| 20260906075448 | 17 | 244 | 1.6 | 4.8 | 0.00 | 0.66 | 0.00 | 75 | 1015.2 |
| 20260906075348 | 17 | 180 | 1.6 | 4.8 | 0.00 | 0.66 | 0.00 | 75 | 1015.2 |
| 20260906075246 | 17 | 180 | 1.6 | 4.8 | 0.00 | 0.66 | 0.00 | 75 | 1015.2 |
| 20260906075146 | 17 | 180 | 1.6 | 8.0 | 0.00 | 0.66 | 0.00 | 75 | 1015.2 |
| 20260906075045 | 17 | 180 | 1.6 | 8.0 | 0.00 | 0.66 | 0.00 | 75 | 1015.2 |
| 20260906074945 | 17 | 180 | 1.6 | 8.0 | 0.00 | 0.66 | 0.00 | 75 | 1015.1 |
| 20260906074845 | 17 | 180 | 1.6 | 8.0 | 0.00 | 0.66 | 0.00 | 75 | 1015.1 |
| 20260906074747 | 17 | 180 | 3.2 | 8.0 | 0.00 | 0.66 | 0.00 | 75 | 1015.1 |
| 20260906074646 | 17 | 266 | 1.6 | 8.0 | 0.00 | 0.66 | 0.00 | 75 | 1015.1 |
| 20260906074542 | 17 | 180 | 1.6 | 8.0 | 0.00 | 0.66 | 0.00 | 75 | 1015.1 |
| 20260906074443 | 17 | 180 | 1.6 | 8.0 | 0.00 | 0.66 | 0.00 | 75 | 1015.1 |
| 20260906074341 | 17 | 278 | 1.6 | 8.0 | 0.00 | 0.66 | 0.00 | 75 | 1015.1 |
| 20260906074241 | 17 | 180 | 1.6 | 8.0 | 0.00 | 0.66 | 0.00 | 75 | 1015.1 |
| 20260906074144 | 17 | 180 | 1.6 | 4.8 | 0.00 | 0.66 | 0.00 | 75 | 1015.1 |
| 20260906074044 | 17 | 262 | 1.6 | 4.8 | 0.00 | 0.66 | 0.00 | 75 | 1015.1 |
| 20260906073941 | 17 | 258 | 1.6 | 4.8 | 0.00 | 0.66 | 0.00 | 75 | 1015.1 |
| 20260906073841 | 17 | 180 | 1.6 | 4.8 | 0.00 | 0.66 | 0.00 | 75 | 1015.1 |
| 20260906073740 | 17 | 264 | 1.6 | 4.8 | 0.00 | 0.66 | 0.00 | 75 | 1015.1 |
| 20260906073638 | 17 | 180 | 1.6 | 4.8 | 0.00 | 0.66 | 0.00 | 76 | 1015.2 |
| 20260906073539 | 17 | 264 | 1.6 | 4.8 | 0.00 | 0.66 | 0.00 | 76 | 1015.2 |
| 20260906073435 | 17 | 180 | 1.6 | 4.8 | 0.00 | 0.66 | 0.00 | 76 | 1015.2 |
| 20260906073338 | 17 | 180 | 1.6 | 4.8 | 0.00 | 0.66 | 0.00 | 76 | 1015.1 |
| 20260906073232 | 17 | 180 | 1.6 | 4.8 | 0.00 | 0.66 | 0.00 | 76 | 1015.1 |
| 20260906073131 | 17 | 180 | 1.6 | 4.8 | 0.00 | 0.66 | 0.00 | 76 | 1015.1 |
| 20260906073029 | 17 | 270 | 1.6 | 4.8 | 0.00 | 0.66 | 0.00 | 76 | 1015.1 |
| 20260906072928 | 17 | 264 | 1.6 | 4.8 | 0.00 | 0.66 | 0.00 | 76 | 1015.2 |
| 20260906072825 | 17 | 180 | 1.6 | 4.8 | 0.00 | 0.66 | 0.00 | 76 | 1015.1 |
| 20260906072726 | 17 | 180 | 1.6 | 11.3 | 0.00 | 0.66 | 0.00 | 76 | 1015.2 |
| 20260906072624 | 17 | 257 | 1.6 | 11.3 | 0.00 | 0.66 | 0.00 | 76 | 1015.1 |
| 20260906072525 | 17 | 180 | 1.6 | 11.3 | 0.00 | 0.66 | 0.00 | 76 | 1015.2 |
| 20260906072425 | 17 | 180 | 1.6 | 11.3 | 0.00 | 0.66 | 0.00 | 76 | 1015.2 |
| 20260906072325 | 17 | 252 | 1.6 | 11.3 | 0.00 | 0.66 | 0.00 | 76 | 1015.2 |
| 20260906072223 | 17 | 309 | 1.6 | 11.3 | 0.00 | 0.66 | 0.00 | 76 | 1015.3 |
| 20260906072124 | 17 | 274 | 1.6 | 11.3 | 0.00 | 0.66 | 0.00 | 76 | 1015.3 |
| 20260906072022 | 17 | 273 | 1.6 | 11.3 | 0.00 | 0.66 | 0.00 | 76 | 1015.2 |
| 20260906071922 | 17 | 253 | 1.6 | 11.3 | 0.00 | 0.66 | 0.00 | 76 | 1015.2 |
| 20260906071821 | 17 | 246 | 1.6 | 11.3 | 0.00 | 0.66 | 0.00 | 76 | 1015.3 |
| 20260906071722 | 17 | 287 | 1.6 | 8.0 | 0.00 | 0.66 | 0.00 | 76 | 1015.3 |
| 20260906071623 | 17 | 262 | 1.6 | 8.0 | 0.00 | 0.66 | 0.00 | 76 | 1015.3 |
| 20260906071522 | 17 | 291 | 1.6 | 8.0 | 0.00 | 0.66 | 0.00 | 76 | 1015.3 |
| 20260906071423 | 17 | 268 | 1.6 | 4.8 | 0.00 | 0.66 | 0.00 | 76 | 1015.2 |
| 20260906071322 | 17 | 259 | 1.6 | 4.8 | 0.00 | 0.66 | 0.00 | 75 | 1015.2 |
| 20260906071222 | 17 | 305 | 1.6 | 4.8 | 0.00 | 0.66 | 0.00 | 75 | 1015.2 |
| 20260906071121 | 17 | 297 | 1.6 | 4.8 | 0.00 | 0.66 | 0.00 | 75 | 1015.2 |
| 20260906071024 | 17 | 272 | 1.6 | 6.4 | 0.00 | 0.66 | 0.00 | 75 | 1015.2 |
| 20260906070923 | 17 | 256 | 1.6 | 6.4 | 0.00 | 0.66 | 0.00 | 75 | 1015.2 |
| 20260906070819 | 17 | 270 | 3.2 | 6.4 | 0.00 | 0.66 | 0.00 | 75 | 1015.3 |
| 20260906070719 | 17 | 180 | 3.2 | 8.0 | 0.00 | 0.66 | 0.00 | 75 | 1015.3 |
| 20260906070619 | 17 | 180 | 3.2 | 8.0 | 0.00 | 0.66 | 0.00 | 75 | 1015.3 |
| 20260906070521 | 17 | 180 | 1.6 | 8.0 | 0.00 | 0.66 | 0.00 | 75 | 1015.3 |
| 20260906070413 | 17 | 180 | 3.2 | 8.0 | 0.00 | 0.66 | 0.00 | 76 | 1015.3 |
| 20260906070314 | 17 | 180 | 3.2 | 8.0 | 0.00 | 0.66 | 0.00 | 76 | 1015.3 |
| 20260906070213 | 17 | 180 | 3.2 | 8.0 | 0.00 | 0.66 | 0.00 | 76 | 1015.2 |
| 20260906070113 | 17 | 180 | 1.6 | 8.0 | 0.00 | 0.66 | 0.00 | 75 | 1015.3 |
| 20260906070011 | 17 | 180 | 1.6 | 11.3 | 0.00 | 0.66 | 0.00 | 75 | 1015.2 |
| 20260906065911 | 17 | 180 | 1.6 | 11.3 | 0.00 | 0.66 | 0.00 | 75 | 1015.2 |
| 20260906065809 | 17 | 180 | 1.6 | 11.3 | 0.00 | 0.66 | 0.00 | 75 | 1015.2 |
| 20260906065709 | 17 | 180 | 3.2 | 11.3 | 0.00 | 0.66 | 0.00 | 75 | 1015.2 |
| 20260906065602 | 17 | 180 | 3.2 | 11.3 | 0.00 | 0.66 | 0.00 | 75 | 1015.2 |
| 20260906065501 | 17 | 180 | 3.2 | 11.3 | 0.00 | 0.66 | 0.00 | 75 | 1015.2 |
| 20260906065401 | 17 | 278 | 3.2 | 11.3 | 0.00 | 0.66 | 0.00 | 75 | 1015.1 |
| 20260906065301 | 17 | 248 | 3.2 | 11.3 | 0.00 | 0.66 | 0.00 | 75 | 1015.1 |
| 20260906065157 | 17 | 276 | 3.2 | 11.3 | 0.00 | 0.66 | 0.00 | 75 | 1015.1 |
| 20260906065058 | 17 | 256 | 3.2 | 11.3 | 0.00 | 0.66 | 0.00 | 75 | 1015.1 |
| 20260906064957 | 17 | 255 | 3.2 | 8.0 | 0.00 | 0.66 | 0.00 | 74 | 1015.1 |
| 20260906064857 | 17 | 264 | 3.2 | 8.0 | 0.00 | 0.66 | 0.00 | 75 | 1015.1 |
| 20260906064752 | 17 | 278 | 3.2 | 8.0 | 0.00 | 0.66 | 0.00 | 75 | 1015.1 |
| 20260906064650 | 17 | 266 | 3.2 | 8.0 | 0.00 | 0.66 | 0.00 | 74 | 1015.1 |
| 20260906064549 | 17 | 268 | 3.2 | 8.0 | 0.00 | 0.66 | 0.00 | 74 | 1015.1 |
| 20260906064448 | 18 | 180 | 3.2 | 8.0 | 0.00 | 0.66 | 0.00 | 74 | 1015.1 |
| 20260906064346 | 18 | 254 | 3.2 | 8.0 | 0.00 | 0.66 | 0.00 | 74 | 1015.1 |
| 20260906064247 | 18 | 180 | 3.2 | 8.0 | 0.00 | 0.66 | 0.00 | 74 | 1015.1 |
| 20260906064145 | 18 | 255 | 3.2 | 8.0 | 0.00 | 0.66 | 0.00 | 74 | 1015.1 |
| 20260906064046 | 18 | 268 | 3.2 | 8.0 | 0.00 | 0.66 | 0.00 | 74 | 1015.0 |
| 20260906063946 | 18 | 180 | 3.2 | 8.0 | 0.00 | 0.66 | 0.00 | 74 | 1015.0 |
| 20260906063846 | 18 | 272 | 3.2 | 8.0 | 0.00 | 0.66 | 0.00 | 74 | 1015.0 |
| 20260906063743 | 18 | 263 | 3.2 | 8.0 | 0.00 | 0.66 | 0.00 | 74 | 1015.0 |
| 20260906063642 | 18 | 180 | 3.2 | 8.0 | 0.00 | 0.66 | 0.00 | 73 | 1015.0 |
| 20260906063542 | 18 | 274 | 3.2 | 8.0 | 0.00 | 0.66 | 0.00 | 73 | 1015.0 |
| 20260906063441 | 18 | 268 | 3.2 | 8.0 | 0.00 | 0.66 | 0.00 | 73 | 1015.1 |
| 20260906063339 | 18 | 243 | 3.2 | 8.0 | 0.00 | 0.66 | 0.00 | 73 | 1015.0 |
| 20260906063239 | 18 | 263 | 3.2 | 8.0 | 0.00 | 0.66 | 0.00 | 73 | 1015.1 |
| 20260906063138 | 18 | 263 | 3.2 | 8.0 | 0.00 | 0.66 | 0.00 | 73 | 1015.1 |
| 20260906063039 | 18 | 263 | 1.6 | 8.0 | 0.00 | 0.66 | 0.00 | 73 | 1015.1 |
| 20260906062937 | 18 | 256 | 1.6 | 6.4 | 0.00 | 0.66 | 0.00 | 73 | 1015.1 |
| 20260906062838 | 18 | 180 | 1.6 | 6.4 | 0.00 | 0.66 | 0.00 | 73 | 1015.1 |
| 20260906062733 | 18 | 180 | 1.6 | 6.4 | 0.00 | 0.66 | 0.00 | 73 | 1015.1 |
| 20260906062636 | 18 | 180 | 1.6 | 6.4 | 0.00 | 0.66 | 0.00 | 73 | 1015.1 |
| 20260906062535 | 18 | 180 | 1.6 | 6.4 | 0.00 | 0.66 | 0.00 | 73 | 1015.1 |
| 20260906062432 | 18 | 180 | 1.6 | 4.8 | 0.00 | 0.66 | 0.00 | 73 | 1015.1 |
| 20260906062332 | 18 | 180 | 1.6 | 4.8 | 0.00 | 0.66 | 0.00 | 73 | 1015.2 |
| 20260906062232 | 18 | 274 | 1.6 | 4.8 | 0.00 | 0.66 | 0.00 | 73 | 1015.2 |
| 20260906062132 | 18 | 180 | 1.6 | 4.8 | 0.00 | 0.66 | 0.00 | 73 | 1015.2 |
| 20260906062026 | 18 | 180 | 1.6 | 4.8 | 0.00 | 0.66 | 0.00 | 73 | 1015.3 |
| 20260906061928 | 18 | 180 | 1.6 | 4.8 | 0.00 | 0.66 | 0.00 | 73 | 1015.2 |
| 20260906061821 | 18 | 180 | 1.6 | 6.4 | 0.00 | 0.66 | 0.00 | 73 | 1015.3 |
| 20260906061722 | 18 | 180 | 1.6 | 6.4 | 0.00 | 0.66 | 0.00 | 73 | 1015.3 |
| 20260906061622 | 18 | 270 | 1.6 | 6.4 | 0.00 | 0.66 | 0.00 | 73 | 1015.3 |
| 20260906061522 | 18 | 180 | 1.6 | 6.4 | 0.00 | 0.66 | 0.00 | 73 | 1015.3 |
| 20260906061418 | 18 | 180 | 1.6 | 6.4 | 0.00 | 0.66 | 0.00 | 73 | 1015.3 |
| 20260906061319 | 18 | 180 | 1.6 | 6.4 | 0.00 | 0.66 | 0.00 | 73 | 1015.3 |
| 20260906061216 | 18 | 180 | 1.6 | 6.4 | 0.00 | 0.66 | 0.00 | 73 | 1015.3 |
| 20260906061117 | 18 | 180 | 1.6 | 6.4 | 0.00 | 0.66 | 0.00 | 73 | 1015.3 |
| 20260906061011 | 18 | 180 | 1.6 | 6.4 | 0.00 | 0.66 | 0.00 | 73 | 1015.3 |
| 20260906060910 | 18 | 180 | 3.2 | 9.7 | 0.00 | 0.66 | 0.00 | 73 | 1015.3 |
| 20260906060809 | 18 | 180 | 3.2 | 9.7 | 0.00 | 0.66 | 0.00 | 73 | 1015.3 |
| 20260906060708 | 18 | 180 | 3.2 | 9.7 | 0.00 | 0.66 | 0.00 | 73 | 1015.3 |
| 20260906060603 | 18 | 180 | 3.2 | 9.7 | 0.00 | 0.66 | 0.00 | 73 | 1015.2 |
| 20260906060505 | 18 | 180 | 3.2 | 9.7 | 0.00 | 0.66 | 0.00 | 73 | 1015.2 |
| 20260906060404 | 18 | 180 | 3.2 | 9.7 | 0.00 | 0.66 | 0.00 | 73 | 1015.2 |
| 20260906060304 | 18 | 180 | 3.2 | 9.7 | 0.00 | 0.66 | 0.00 | 73 | 1015.2 |
| 20260906060158 | 18 | 256 | 3.2 | 9.7 | 0.00 | 0.66 | 0.00 | 73 | 1015.2 |
| 20260906060058 | 18 | 256 | 3.2 | 9.7 | 0.00 | 0.66 | 0.00 | 73 | 1015.2 |
| 20260906055956 | 18 | 274 | 3.2 | 9.7 | 0.00 | 0.66 | 0.00 | 73 | 1015.1 |
| 20260906055856 | 18 | 266 | 3.2 | 8.0 | 0.00 | 0.66 | 0.00 | 73 | 1015.1 |
| 20260906055754 | 18 | 297 | 3.2 | 8.0 | 0.00 | 0.66 | 0.00 | 73 | 1015.1 |
| 20260906055654 | 18 | 285 | 3.2 | 8.0 | 0.00 | 0.66 | 0.00 | 73 | 1015.1 |
| 20260906055547 | 18 | 249 | 1.6 | 8.0 | 0.00 | 0.66 | 0.00 | 73 | 1015.2 |
| 20260906055448 | 18 | 285 | 1.6 | 8.0 | 0.00 | 0.66 | 0.00 | 73 | 1015.1 |
| 20260906055348 | 18 | 256 | 3.2 | 6.4 | 0.00 | 0.66 | 0.00 | 73 | 1015.1 |
| 20260906055244 | 18 | 269 | 3.2 | 6.4 | 0.00 | 0.66 | 0.00 | 73 | 1015.1 |
| 20260906055145 | 18 | 254 | 3.2 | 4.8 | 0.00 | 0.66 | 0.00 | 73 | 1015.1 |
| 20260906055046 | 18 | 266 | 3.2 | 8.0 | 0.00 | 0.66 | 0.00 | 73 | 1015.1 |
| 20260906054948 | 18 | 285 | 1.6 | 8.0 | 0.00 | 0.66 | 0.00 | 73 | 1015.1 |
| 20260906054843 | 18 | 255 | 1.6 | 8.0 | 0.00 | 0.66 | 0.00 | 73 | 1015.1 |
| 20260906054747 | 18 | 262 | 1.6 | 8.0 | 0.00 | 0.66 | 0.00 | 73 | 1015.1 |
| 20260906054642 | 18 | 264 | 1.6 | 8.0 | 0.00 | 0.66 | 0.00 | 73 | 1015.1 |
| 20260906054541 | 18 | 260 | 1.6 | 8.0 | 0.00 | 0.66 | 0.00 | 73 | 1015.0 |
| 20260906054443 | 19 | 278 | 1.6 | 8.0 | 0.00 | 0.66 | 0.00 | 73 | 1015.1 |
| 20260906054337 | 19 | 281 | 1.6 | 8.0 | 0.00 | 0.66 | 0.00 | 73 | 1015.1 |
| 20260906054237 | 19 | 264 | 1.6 | 8.0 | 0.00 | 0.66 | 0.00 | 73 | 1015.1 |
| 20260906054135 | 19 | 258 | 1.6 | 8.0 | 0.00 | 0.66 | 0.00 | 73 | 1015.1 |
| 20260906054036 | 19 | 254 | 1.6 | 4.8 | 0.00 | 0.66 | 0.00 | 73 | 1015.1 |
| 20260906053935 | 19 | 255 | 1.6 | 4.8 | 0.00 | 0.66 | 0.00 | 73 | 1015.0 |
| 20260906053836 | 19 | 254 | 1.6 | 4.8 | 0.00 | 0.66 | 0.00 | 73 | 1015.0 |
| 20260906053733 | 19 | 241 | 1.6 | 4.8 | 0.00 | 0.66 | 0.00 | 73 | 1015.0 |
| 20260906053634 | 19 | 256 | 1.6 | 4.8 | 0.00 | 0.66 | 0.00 | 73 | 1015.0 |
| 20260906053531 | 19 | 256 | 1.6 | 4.8 | 0.00 | 0.66 | 0.00 | 73 | 1014.9 |
| 20260906053434 | 19 | 259 | 1.6 | 4.8 | 0.00 | 0.66 | 0.00 | 73 | 1015.0 |
| 20260906053327 | 19 | 261 | 1.6 | 4.8 | 0.00 | 0.66 | 0.00 | 73 | 1014.9 |
| 20260906053226 | 19 | 266 | 1.6 | 4.8 | 0.00 | 0.66 | 0.00 | 73 | 1014.9 |
| 20260906053124 | 19 | 271 | 1.6 | 4.8 | 0.00 | 0.66 | 0.00 | 72 | 1014.9 |
| 20260906053024 | 19 | 262 | 1.6 | 4.8 | 0.00 | 0.66 | 0.00 | 73 | 1014.9 |
| 20260906052922 | 19 | 250 | 1.6 | 4.8 | 0.00 | 0.66 | 0.00 | 73 | 1014.9 |
| 20260906052823 | 19 | 290 | 1.6 | 4.8 | 0.00 | 0.66 | 0.00 | 73 | 1014.8 |
| 20260906052720 | 19 | 255 | 1.6 | 4.8 | 0.00 | 0.66 | 0.00 | 73 | 1014.8 |
| 20260906052621 | 19 | 132 | 1.6 | 4.8 | 0.00 | 0.66 | 0.00 | 73 | 1014.8 |
| 20260906052521 | 19 | 267 | 1.6 | 8.0 | 0.00 | 0.66 | 0.00 | 73 | 1014.9 |
| 20260906052421 | 19 | 253 | 1.6 | 9.7 | 0.00 | 0.66 | 0.00 | 72 | 1014.9 |
| 20260906052321 | 19 | 270 | 1.6 | 9.7 | 0.00 | 0.66 | 0.00 | 72 | 1014.8 |
| 20260906052221 | 19 | 285 | 1.6 | 9.7 | 0.00 | 0.66 | 0.00 | 72 | 1014.8 |
| 20260906052120 | 19 | 245 | 1.6 | 11.3 | 0.00 | 0.66 | 0.00 | 72 | 1014.9 |
| 20260906052021 | 19 | 271 | 1.6 | 11.3 | 0.00 | 0.66 | 0.00 | 72 | 1014.9 |
| 20260906051919 | 19 | 249 | 1.6 | 11.3 | 0.00 | 0.66 | 0.00 | 72 | 1014.9 |
| 20260906051820 | 19 | 274 | 1.6 | 11.3 | 0.00 | 0.66 | 0.00 | 72 | 1014.8 |
| 20260906051722 | 19 | 251 | 1.6 | 11.3 | 0.00 | 0.66 | 0.00 | 72 | 1014.9 |
| 20260906051622 | 19 | 254 | 1.6 | 11.3 | 0.00 | 0.66 | 0.00 | 72 | 1014.9 |
| 20260906051519 | 19 | 260 | 1.6 | 11.3 | 0.00 | 0.66 | 0.00 | 72 | 1014.9 |
| 20260906051420 | 19 | 289 | 1.6 | 11.3 | 0.00 | 0.66 | 0.00 | 72 | 1014.8 |
| 20260906051321 | 19 | 229 | 1.6 | 11.3 | 0.00 | 0.66 | 0.00 | 72 | 1014.9 |
| 20260906051217 | 20 | 256 | 1.6 | 11.3 | 0.00 | 0.66 | 0.00 | 72 | 1014.9 |
| 20260906051119 | 20 | 180 | 0.0 | 4.8 | 0.00 | 0.66 | 0.00 | 73 | 1014.8 |
| 20260906051014 | 20 | 251 | 1.6 | 4.8 | 0.00 | 0.66 | 0.00 | 73 | 1014.9 |
| 20260906050913 | 20 | 251 | 1.6 | 4.8 | 0.00 | 0.66 | 0.00 | 73 | 1014.9 |
| 20260906050809 | 20 | 251 | 1.6 | 4.8 | 0.00 | 0.66 | 0.00 | 73 | 1014.9 |
| 20260906050710 | 20 | 251 | 1.6 | 4.8 | 0.00 | 0.66 | 0.00 | 73 | 1014.8 |
| 20260906050607 | 20 | 251 | 1.6 | 4.8 | 0.00 | 0.66 | 0.00 | 74 | 1014.8 |
| 20260906050509 | 20 | 276 | 1.6 | 4.8 | 0.00 | 0.66 | 0.00 | 74 | 1014.7 |
| 20260906050402 | 20 | 268 | 1.6 | 8.0 | 0.00 | 0.66 | 0.00 | 74 | 1014.7 |
| 20260906050301 | 20 | 260 | 1.6 | 8.0 | 0.00 | 0.66 | 0.00 | 74 | 1014.7 |
| 20260906050202 | 20 | 260 | 1.6 | 8.0 | 0.00 | 0.66 | 0.00 | 74 | 1014.7 |
| 20260906045958 | 20 | 274 | 3.2 | 8.0 | 0.00 | 0.66 | 0.00 | 74 | 1014.7 |
| 20260906045858 | 20 | 258 | 3.2 | 8.0 | 0.00 | 0.66 | 0.00 | 75 | 1014.7 |
| 20260906045755 | 20 | 348 | 3.2 | 8.0 | 0.00 | 0.66 | 0.00 | 75 | 1014.7 |
| 20260906045702 | 20 | 247 | 3.2 | 11.3 | 0.00 | 0.66 | 0.00 | 75 | 1014.6 |
| 20260906045553 | 20 | 267 | 3.2 | 11.3 | 0.00 | 0.66 | 0.00 | 75 | 1014.7 |
| 20260906045454 | 20 | 254 | 3.2 | 11.3 | 0.00 | 0.66 | 0.00 | 75 | 1014.6 |
| 20260906045348 | 20 | 190 | 3.2 | 11.3 | 0.00 | 0.66 | 0.00 | 75 | 1014.7 |
| 20260906045249 | 20 | 287 | 4.8 | 12.9 | 0.00 | 0.66 | 0.00 | 75 | 1014.6 |
| 20260906045147 | 20 | 241 | 4.8 | 12.9 | 0.00 | 0.66 | 0.00 | 75 | 1014.6 |
| 20260906045048 | 20 | 261 | 4.8 | 12.9 | 0.00 | 0.66 | 0.00 | 75 | 1014.7 |
| 20260906044943 | 20 | 245 | 4.8 | 12.9 | 0.00 | 0.66 | 0.00 | 75 | 1014.6 |
| 20260906044846 | 20 | 259 | 4.8 | 12.9 | 0.00 | 0.66 | 0.00 | 75 | 1014.7 |
| 20260906044742 | 20 | 251 | 3.2 | 12.9 | 0.00 | 0.66 | 0.00 | 75 | 1014.7 |
| 20260906044643 | 20 | 230 | 4.8 | 12.9 | 0.00 | 0.66 | 0.00 | 75 | 1014.6 |
| 20260906044537 | 20 | 220 | 3.2 | 12.9 | 0.00 | 0.66 | 0.00 | 75 | 1014.6 |
| 20260906044436 | 20 | 242 | 3.2 | 12.9 | 0.00 | 0.66 | 0.00 | 74 | 1014.6 |
| 20260906044340 | 20 | 268 | 3.2 | 12.9 | 0.00 | 0.66 | 0.00 | 74 | 1014.6 |
| 20260906044235 | 20 | 180 | 3.2 | 9.7 | 0.00 | 0.66 | 0.00 | 73 | 1014.6 |
| 20260906044130 | 20 | 180 | 3.2 | 9.7 | 0.00 | 0.66 | 0.00 | 73 | 1014.6 |
| 20260906044036 | 20 | 180 | 3.2 | 9.7 | 0.00 | 0.66 | 0.00 | 72 | 1014.5 |
| 20260906043928 | 20 | 212 | 3.2 | 9.7 | 0.00 | 0.66 | 0.00 | 72 | 1014.6 |
| 20260906043828 | 20 | 180 | 3.2 | 9.7 | 0.00 | 0.66 | 0.00 | 72 | 1014.6 |
| 20260906043722 | 20 | 180 | 3.2 | 9.7 | 0.00 | 0.66 | 0.00 | 72 | 1014.6 |
| 20260906043622 | 20 | 180 | 3.2 | 9.7 | 0.00 | 0.66 | 0.00 | 72 | 1014.5 |
| 20260906043516 | 20 | 180 | 3.2 | 9.7 | 0.00 | 0.66 | 0.00 | 72 | 1014.5 |
| 20260906043417 | 20 | 180 | 3.2 | 9.7 | 0.00 | 0.66 | 0.00 | 72 | 1014.4 |
| 20260906043313 | 20 | 180 | 3.2 | 11.3 | 0.00 | 0.66 | 0.00 | 72 | 1014.4 |
| 20260906043215 | 21 | 274 | 3.2 | 11.3 | 0.00 | 0.66 | 0.00 | 72 | 1014.4 |
| 20260906043111 | 21 | 260 | 3.2 | 11.3 | 0.00 | 0.66 | 0.00 | 72 | 1014.4 |
| 20260906043012 | 21 | 252 | 3.2 | 11.3 | 0.00 | 0.66 | 0.00 | 72 | 1014.4 |
| 20260906042910 | 21 | 263 | 3.2 | 11.3 | 0.00 | 0.66 | 0.00 | 71 | 1014.4 |
| 20260906042811 | 21 | 260 | 3.2 | 11.3 | 0.00 | 0.66 | 0.00 | 71 | 1014.4 |
| 20260906042705 | 21 | 271 | 3.2 | 11.3 | 0.00 | 0.66 | 0.00 | 71 | 1014.4 |
| 20260906042604 | 21 | 241 | 3.2 | 11.3 | 0.00 | 0.66 | 0.00 | 71 | 1014.4 |
| 20260906042503 | 21 | 282 | 3.2 | 11.3 | 0.00 | 0.66 | 0.00 | 71 | 1014.4 |
| 20260906042403 | 21 | 268 | 3.2 | 8.0 | 0.00 | 0.66 | 0.00 | 70 | 1014.4 |
| 20260906042301 | 21 | 189 | 3.2 | 9.7 | 0.00 | 0.66 | 0.00 | 70 | 1014.4 |
| 20260906042202 | 21 | 270 | 3.2 | 9.7 | 0.00 | 0.66 | 0.00 | 70 | 1014.4 |
| 20260906042056 | 21 | 158 | 3.2 | 9.7 | 0.00 | 0.66 | 0.00 | 69 | 1014.3 |
| 20260906041958 | 21 | 267 | 3.2 | 9.7 | 0.00 | 0.66 | 0.00 | 69 | 1014.3 |
| 20260906041852 | 21 | 264 | 3.2 | 9.7 | 0.00 | 0.66 | 0.00 | 68 | 1014.3 |
| 20260906041751 | 21 | 347 | 3.2 | 9.7 | 0.00 | 0.66 | 0.00 | 68 | 1014.4 |
| 20260906041651 | 21 | 312 | 3.2 | 9.7 | 0.00 | 0.66 | 0.00 | 68 | 1014.4 |
| 20260906041551 | 21 | 240 | 3.2 | 9.7 | 0.00 | 0.66 | 0.00 | 67 | 1014.4 |
| 20260906041446 | 21 | 164 | 3.2 | 9.7 | 0.00 | 0.66 | 0.00 | 67 | 1014.4 |
| 20260906041345 | 21 | 285 | 3.2 | 9.7 | 0.00 | 0.66 | 0.00 | 67 | 1014.4 |
| 20260906041246 | 21 | 214 | 3.2 | 8.0 | 0.00 | 0.66 | 0.00 | 67 | 1014.4 |
| 20260906041147 | 21 | 180 | 3.2 | 8.0 | 0.00 | 0.66 | 0.00 | 67 | 1014.4 |
| 20260906041041 | 21 | 233 | 1.6 | 8.0 | 0.00 | 0.66 | 0.00 | 66 | 1014.4 |
| 20260906040942 | 21 | 274 | 1.6 | 8.0 | 0.00 | 0.66 | 0.00 | 66 | 1014.5 |
| 20260906040838 | 21 | 237 | 1.6 | 8.0 | 0.00 | 0.66 | 0.00 | 66 | 1014.4 |
| 20260906040739 | 21 | 258 | 3.2 | 9.7 | 0.00 | 0.66 | 0.00 | 66 | 1014.5 |
| 20260906040636 | 21 | 211 | 3.2 | 9.7 | 0.00 | 0.66 | 0.00 | 65 | 1014.4 |
| 20260906040536 | 21 | 193 | 3.2 | 9.7 | 0.00 | 0.66 | 0.00 | 65 | 1014.4 |
| 20260906040438 | 21 | 195 | 3.2 | 9.7 | 0.00 | 0.66 | 0.00 | 65 | 1014.4 |
| 20260906040335 | 21 | 264 | 3.2 | 9.7 | 0.00 | 0.66 | 0.00 | 65 | 1014.4 |
| 20260906040238 | 22 | 229 | 3.2 | 9.7 | 0.00 | 0.66 | 0.00 | 65 | 1014.4 |
| 20260906040134 | 22 | 255 | 3.2 | 9.7 | 0.00 | 0.66 | 0.00 | 65 | 1014.4 |
| 20260906040034 | 22 | 255 | 3.2 | 9.7 | 0.00 | 0.66 | 0.00 | 65 | 1014.4 |
| 20260906035936 | 22 | 266 | 3.2 | 9.7 | 0.00 | 0.66 | 0.66 | 65 | 1014.4 |
| 20260906035834 | 22 | 251 | 3.2 | 9.7 | 0.00 | 0.66 | 0.66 | 65 | 1014.4 |
| 20260906035733 | 22 | 266 | 1.6 | 9.7 | 0.00 | 0.66 | 0.66 | 65 | 1014.4 |
| 20260906035632 | 22 | 254 | 1.6 | 9.7 | 0.00 | 0.66 | 0.66 | 65 | 1014.4 |
| 20260906035532 | 22 | 251 | 1.6 | 9.7 | 0.00 | 0.66 | 0.66 | 65 | 1014.4 |
| 20260906035434 | 22 | 261 | 1.6 | 9.7 | 0.00 | 0.66 | 0.66 | 65 | 1014.4 |
| 20260906035331 | 22 | 189 | 1.6 | 9.7 | 0.00 | 0.66 | 0.66 | 65 | 1014.4 |
| 20260906035233 | 22 | 296 | 1.6 | 9.7 | 0.00 | 0.66 | 0.66 | 65 | 1014.4 |
| 20260906035134 | 22 | 306 | 1.6 | 9.7 | 0.00 | 0.66 | 0.66 | 65 | 1014.4 |
| 20260906035031 | 22 | 198 | 1.6 | 9.7 | 0.00 | 0.66 | 0.66 | 65 | 1014.4 |
| 20260906034932 | 22 | 246 | 1.6 | 8.0 | 0.00 | 0.66 | 0.66 | 65 | 1014.4 |
| 20260906034832 | 22 | 355 | 1.6 | 8.0 | 0.00 | 0.66 | 0.66 | 65 | 1014.4 |
| 20260906034734 | 22 | 357 | 1.6 | 8.0 | 0.00 | 0.66 | 0.66 | 65 | 1014.4 |
| 20260906034634 | 22 | 249 | 3.2 | 8.0 | 0.00 | 0.66 | 0.66 | 65 | 1014.4 |
| 20260906034530 | 22 | 232 | 3.2 | 8.0 | 0.00 | 0.66 | 0.66 | 65 | 1014.3 |
| 20260906034430 | 22 | 218 | 3.2 | 8.0 | 0.00 | 0.66 | 0.66 | 65 | 1014.3 |
| 20260906034329 | 22 | 270 | 3.2 | 8.0 | 0.00 | 0.66 | 0.66 | 65 | 1014.3 |
| 20260906034234 | 22 | 249 | 3.2 | 8.0 | 0.00 | 0.66 | 0.66 | 65 | 1014.4 |
| 20260906034127 | 22 | 245 | 1.6 | 8.0 | 0.00 | 0.66 | 0.66 | 65 | 1014.3 |
| 20260906034025 | 22 | 237 | 1.6 | 8.0 | 0.00 | 0.66 | 0.66 | 65 | 1014.3 |
| 20260906033928 | 22 | 191 | 1.6 | 8.0 | 0.00 | 0.66 | 0.66 | 65 | 1014.3 |
| 20260906033827 | 22 | 254 | 1.6 | 8.0 | 0.00 | 0.66 | 0.66 | 65 | 1014.3 |
| 20260906033727 | 22 | 247 | 1.6 | 8.0 | 0.00 | 0.66 | 0.66 | 65 | 1014.2 |
| 20260906033624 | 22 | 272 | 1.6 | 11.3 | 0.00 | 0.66 | 0.66 | 65 | 1014.2 |
| 20260906033521 | 22 | 283 | 1.6 | 11.3 | 0.00 | 0.66 | 0.66 | 65 | 1014.2 |
| 20260906033423 | 22 | 241 | 1.6 | 11.3 | 0.00 | 0.66 | 0.66 | 65 | 1014.2 |
| 20260906033322 | 22 | 254 | 1.6 | 11.3 | 0.00 | 0.66 | 0.66 | 65 | 1014.2 |
| 20260906033217 | 22 | 247 | 3.2 | 11.3 | 0.00 | 0.66 | 0.66 | 65 | 1014.2 |
| 20260906033116 | 22 | 247 | 3.2 | 11.3 | 0.00 | 0.66 | 0.66 | 65 | 1014.2 |
| 20260906033015 | 22 | 272 | 3.2 | 11.3 | 0.00 | 0.66 | 0.66 | 65 | 1014.2 |
| 20260906032915 | 22 | 296 | 3.2 | 11.3 | 0.00 | 0.66 | 0.66 | 65 | 1014.1 |
| 20260906032819 | 22 | 294 | 3.2 | 11.3 | 0.00 | 0.66 | 0.66 | 65 | 1014.1 |
| 20260906032713 | 22 | 251 | 3.2 | 11.3 | 0.00 | 0.66 | 0.66 | 65 | 1014.2 |
| 20260906032610 | 22 | 277 | 3.2 | 8.0 | 0.00 | 0.66 | 0.66 | 65 | 1014.2 |
| 20260906032511 | 22 | 189 | 3.2 | 8.0 | 0.00 | 0.66 | 0.66 | 65 | 1014.2 |
| 20260906032406 | 22 | 218 | 3.2 | 8.0 | 0.00 | 0.66 | 0.66 | 65 | 1014.1 |
| 20260906032306 | 22 | 256 | 3.2 | 8.0 | 0.00 | 0.66 | 0.66 | 65 | 1014.1 |
| 20260906032201 | 22 | 286 | 3.2 | 8.0 | 0.00 | 0.66 | 0.66 | 65 | 1014.1 |
| 20260906032103 | 22 | 260 | 3.2 | 9.7 | 0.00 | 0.66 | 0.66 | 65 | 1014.1 |
| 20260906032000 | 22 | 272 | 3.2 | 9.7 | 0.00 | 0.66 | 0.66 | 65 | 1014.1 |
| 20260906031901 | 22 | 205 | 3.2 | 9.7 | 0.00 | 0.66 | 0.66 | 65 | 1014.0 |
| 20260906031759 | 22 | 276 | 3.2 | 9.7 | 0.00 | 0.66 | 0.66 | 65 | 1014.0 |
| 20260906031659 | 22 | 256 | 3.2 | 9.7 | 0.00 | 0.66 | 0.66 | 65 | 1014.0 |
| 20260906031553 | 22 | 215 | 3.2 | 9.7 | 0.00 | 0.66 | 0.66 | 65 | 1014.0 |
| 20260906031453 | 22 | 270 | 3.2 | 9.7 | 0.00 | 0.66 | 0.66 | 65 | 1014.0 |
| 20260906031352 | 22 | 266 | 4.8 | 9.7 | 0.00 | 0.66 | 0.66 | 65 | 1014.0 |
| 20260906031252 | 22 | 238 | 4.8 | 9.7 | 0.00 | 0.66 | 0.66 | 65 | 1014.0 |
| 20260906031156 | 22 | 263 | 4.8 | 9.7 | 0.00 | 0.66 | 0.66 | 65 | 1014.0 |
| 20260906031053 | 22 | 269 | 3.2 | 9.7 | 0.00 | 0.66 | 0.66 | 65 | 1014.1 |
| 20260906030954 | 22 | 258 | 3.2 | 9.7 | 0.00 | 0.66 | 0.66 | 65 | 1014.1 |
| 20260906030855 | 22 | 264 | 3.2 | 9.7 | 0.00 | 0.66 | 0.66 | 65 | 1014.1 |
| 20260906030753 | 22 | 260 | 3.2 | 9.7 | 0.00 | 0.66 | 0.66 | 65 | 1014.2 |
| 20260906030650 | 22 | 257 | 3.2 | 9.7 | 0.00 | 0.66 | 0.66 | 65 | 1014.2 |
| 20260906030551 | 22 | 240 | 3.2 | 9.7 | 0.00 | 0.66 | 0.66 | 65 | 1014.2 |
| 20260906030449 | 22 | 234 | 3.2 | 9.7 | 0.00 | 0.66 | 0.66 | 65 | 1014.3 |
| 20260906030349 | 22 | 296 | 3.2 | 9.7 | 0.00 | 0.66 | 0.66 | 65 | 1014.3 |
| 20260906030248 | 22 | 295 | 3.2 | 11.3 | 0.00 | 0.66 | 0.66 | 65 | 1014.3 |
| 20260906030147 | 22 | 270 | 3.2 | 11.3 | 0.00 | 0.66 | 0.66 | 65 | 1014.3 |
| 20260906030049 | 22 | 240 | 3.2 | 11.3 | 0.00 | 0.66 | 0.66 | 65 | 1014.3 |
| 20260906025949 | 22 | 262 | 1.6 | 11.3 | 0.00 | 0.66 | 0.66 | 65 | 1014.3 |
| 20260906025849 | 22 | 285 | 1.6 | 11.3 | 0.00 | 0.66 | 0.66 | 65 | 1014.4 |
| 20260906025748 | 22 | 281 | 1.6 | 11.3 | 0.00 | 0.66 | 0.66 | 65 | 1014.4 |
| 20260906025644 | 22 | 263 | 1.6 | 11.3 | 0.00 | 0.66 | 0.66 | 65 | 1014.3 |
| 20260906025544 | 22 | 268 | 1.6 | 11.3 | 0.00 | 0.66 | 0.66 | 65 | 1014.3 |
| 20260906025444 | 22 | 288 | 1.6 | 11.3 | 0.00 | 0.66 | 0.66 | 65 | 1014.4 |
| 20260906025346 | 22 | 252 | 1.6 | 11.3 | 0.00 | 0.66 | 0.66 | 65 | 1014.3 |
| 20260906025243 | 22 | 190 | 3.2 | 8.0 | 0.00 | 0.66 | 0.66 | 65 | 1014.3 |
| 20260906025141 | 22 | 244 | 3.2 | 12.9 | 0.00 | 0.66 | 0.66 | 65 | 1014.3 |
| 20260906025038 | 22 | 244 | 3.2 | 12.9 | 0.00 | 0.66 | 0.66 | 65 | 1014.3 |
| 20260906024936 | 22 | 224 | 3.2 | 12.9 | 0.00 | 0.66 | 0.66 | 65 | 1014.3 |
| 20260906024836 | 22 | 249 | 3.2 | 12.9 | 0.00 | 0.66 | 0.66 | 65 | 1014.3 |
| 20260906024736 | 22 | 266 | 3.2 | 12.9 | 0.00 | 0.66 | 0.66 | 65 | 1014.3 |
| 20260906024632 | 22 | 247 | 3.2 | 12.9 | 0.00 | 0.66 | 0.66 | 65 | 1014.3 |
| 20260906024528 | 22 | 273 | 3.2 | 12.9 | 0.00 | 0.66 | 0.66 | 65 | 1014.3 |
| 20260906024428 | 22 | 268 | 4.8 | 12.9 | 0.00 | 0.66 | 0.66 | 65 | 1014.3 |
| 20260906024326 | 22 | 288 | 4.8 | 14.5 | 0.00 | 0.66 | 0.66 | 65 | 1014.3 |
| 20260906024225 | 22 | 282 | 4.8 | 14.5 | 0.00 | 0.66 | 0.66 | 65 | 1014.2 |
| 20260906024127 | 22 | 281 | 4.8 | 14.5 | 0.00 | 0.66 | 0.66 | 65 | 1014.2 |
| 20260906024027 | 22 | 228 | 4.8 | 14.5 | 0.00 | 0.66 | 0.66 | 65 | 1014.2 |
| 20260906023926 | 22 | 303 | 4.8 | 14.5 | 0.00 | 0.66 | 0.66 | 65 | 1014.1 |
| 20260906023826 | 22 | 258 | 4.8 | 14.5 | 0.00 | 0.66 | 0.66 | 65 | 1014.2 |
| 20260906023727 | 22 | 320 | 4.8 | 14.5 | 0.00 | 0.66 | 0.66 | 65 | 1014.1 |
| 20260906023626 | 22 | 254 | 4.8 | 14.5 | 0.00 | 0.66 | 0.66 | 65 | 1014.1 |
| 20260906023526 | 22 | 232 | 3.2 | 14.5 | 0.00 | 0.66 | 0.66 | 65 | 1014.1 |
| 20260906023427 | 22 | 251 | 3.2 | 14.5 | 0.00 | 0.66 | 0.66 | 65 | 1014.1 |
| 20260906023321 | 22 | 260 | 3.2 | 11.3 | 0.00 | 0.66 | 0.66 | 65 | 1014.1 |
| 20260906023222 | 22 | 278 | 3.2 | 11.3 | 0.00 | 0.66 | 0.66 | 65 | 1014.1 |
| 20260906023119 | 22 | 289 | 3.2 | 12.9 | 0.00 | 0.66 | 0.66 | 65 | 1014.0 |
| 20260906023017 | 22 | 219 | 3.2 | 12.9 | 0.00 | 0.66 | 0.66 | 64 | 1014.0 |
| 20260906022917 | 22 | 272 | 3.2 | 12.9 | 0.00 | 0.66 | 0.66 | 64 | 1014.0 |
| 20260906022817 | 22 | 335 | 4.8 | 12.9 | 0.00 | 0.66 | 0.66 | 64 | 1014.0 |
| 20260906022711 | 22 | 256 | 4.8 | 12.9 | 0.00 | 0.66 | 0.66 | 64 | 1014.0 |
| 20260906022613 | 22 | 193 | 4.8 | 12.9 | 0.00 | 0.66 | 0.66 | 64 | 1013.9 |
| 20260906022510 | 22 | 288 | 4.8 | 12.9 | 0.00 | 0.66 | 0.66 | 64 | 1013.9 |
| 20260906022418 | 22 | 189 | 4.8 | 12.9 | 0.00 | 0.66 | 0.66 | 64 | 1013.9 |
| 20260906022306 | 22 | 248 | 4.8 | 12.9 | 0.00 | 0.66 | 0.66 | 64 | 1014.0 |
| 20260906022204 | 22 | 269 | 4.8 | 12.9 | 0.00 | 0.66 | 0.66 | 64 | 1013.9 |
| 20260906022104 | 22 | 191 | 4.8 | 12.9 | 0.00 | 0.66 | 0.66 | 64 | 1013.9 |
| 20260906022003 | 22 | 216 | 4.8 | 12.9 | 0.00 | 0.66 | 0.66 | 64 | 1013.9 |
| 20260906021856 | 22 | 271 | 4.8 | 12.9 | 0.00 | 0.66 | 0.66 | 64 | 1014.0 |
| 20260906021658 | 22 | 272 | 3.2 | 11.3 | 0.00 | 0.66 | 0.66 | 64 | 1014.0 |
| 20260906021558 | 22 | 263 | 3.2 | 11.3 | 0.00 | 0.66 | 0.66 | 64 | 1014.0 |
| 20260906021451 | 22 | 237 | 3.2 | 11.3 | 0.00 | 0.66 | 0.66 | 64 | 1014.0 |
| 20260906021353 | 22 | 303 | 3.2 | 11.3 | 0.00 | 0.66 | 0.66 | 64 | 1014.0 |
| 20260906021247 | 22 | 284 | 3.2 | 11.3 | 0.00 | 0.66 | 0.66 | 64 | 1014.0 |
| 20260906021148 | 22 | 258 | 1.6 | 11.3 | 0.00 | 0.66 | 0.66 | 64 | 1014.0 |
| 20260906021045 | 22 | 293 | 1.6 | 11.3 | 0.00 | 0.66 | 0.66 | 64 | 1013.9 |
| 20260906020950 | 22 | 262 | 1.6 | 11.3 | 0.00 | 0.66 | 0.66 | 64 | 1013.9 |
| 20260906020846 | 22 | 262 | 1.6 | 11.3 | 0.00 | 0.66 | 0.66 | 64 | 1013.9 |
| 20260906020747 | 22 | 251 | 1.6 | 11.3 | 0.00 | 0.66 | 0.66 | 64 | 1014.0 |
| 20260906020650 | 22 | 265 | 1.6 | 4.8 | 0.00 | 0.66 | 0.66 | 64 | 1014.0 |
| 20260906020549 | 22 | 265 | 1.6 | 4.8 | 0.00 | 0.66 | 0.66 | 64 | 1014.0 |
| 20260906020444 | 22 | 265 | 1.6 | 4.8 | 0.00 | 0.66 | 0.66 | 64 | 1014.0 |
| 20260906020344 | 22 | 274 | 1.6 | 4.8 | 0.00 | 0.66 | 0.66 | 65 | 1014.0 |
| 20260906020248 | 22 | 272 | 1.6 | 4.8 | 0.00 | 0.66 | 0.66 | 65 | 1014.0 |
| 20260906020143 | 22 | 251 | 1.6 | 4.8 | 0.00 | 0.66 | 0.66 | 65 | 1014.1 |
| 20260906020042 | 22 | 189 | 1.6 | 4.8 | 0.00 | 0.66 | 0.66 | 65 | 1014.0 |
| 20260906015945 | 22 | 218 | 1.6 | 4.8 | 0.00 | 0.66 | 0.66 | 65 | 1014.1 |
| 20260906015840 | 22 | 180 | 1.6 | 8.0 | 0.00 | 0.66 | 0.66 | 65 | 1014.0 |
| 20260906015741 | 22 | 202 | 1.6 | 8.0 | 0.00 | 0.66 | 0.66 | 65 | 1014.0 |
| 20260906015644 | 22 | 78 | 1.6 | 8.0 | 0.00 | 0.66 | 0.66 | 65 | 1014.0 |
| 20260906015543 | 22 | 206 | 1.6 | 8.0 | 0.00 | 0.66 | 0.66 | 65 | 1014.0 |
| 20260906015437 | 22 | 284 | 1.6 | 9.7 | 0.00 | 0.66 | 0.66 | 65 | 1014.0 |
| 20260906015340 | 22 | 225 | 1.6 | 9.7 | 0.00 | 0.66 | 0.66 | 65 | 1013.9 |
| 20260906015236 | 22 | 258 | 1.6 | 9.7 | 0.00 | 0.66 | 0.66 | 65 | 1013.9 |
| 20260906015137 | 22 | 237 | 3.2 | 9.7 | 0.00 | 0.66 | 0.66 | 65 | 1014.0 |
| 20260906015037 | 22 | 237 | 3.2 | 9.7 | 0.00 | 0.66 | 0.66 | 65 | 1014.0 |
| 20260906014936 | 22 | 264 | 3.2 | 9.7 | 0.00 | 0.66 | 0.66 | 65 | 1013.9 |
| 20260906014837 | 22 | 244 | 3.2 | 9.7 | 0.00 | 0.66 | 0.66 | 65 | 1014.0 |
| 20260906014738 | 22 | 272 | 3.2 | 9.7 | 0.00 | 0.66 | 0.66 | 65 | 1014.0 |
| 20260906014634 | 22 | 251 | 3.2 | 9.7 | 0.00 | 0.66 | 0.66 | 65 | 1013.9 |
| 20260906014534 | 22 | 260 | 3.2 | 9.7 | 0.00 | 0.66 | 0.66 | 65 | 1013.8 |
| 20260906014435 | 22 | 269 | 3.2 | 9.7 | 0.00 | 0.66 | 0.66 | 65 | 1013.8 |
| 20260906014331 | 22 | 270 | 4.8 | 9.7 | 0.00 | 0.66 | 0.66 | 65 | 1013.8 |
| 20260906014232 | 22 | 212 | 4.8 | 9.7 | 0.00 | 0.66 | 0.66 | 65 | 1013.7 |
| 20260906014135 | 22 | 302 | 4.8 | 9.7 | 0.00 | 0.66 | 0.66 | 65 | 1013.8 |
| 20260906014032 | 22 | 299 | 3.2 | 9.7 | 0.00 | 0.66 | 0.66 | 65 | 1013.8 |
| 20260906013927 | 22 | 242 | 3.2 | 9.7 | 0.00 | 0.66 | 0.66 | 65 | 1013.8 |
| 20260906013828 | 22 | 180 | 3.2 | 9.7 | 0.00 | 0.66 | 0.66 | 65 | 1013.7 |
| 20260906013726 | 22 | 180 | 4.8 | 9.7 | 0.00 | 0.66 | 0.66 | 65 | 1013.7 |
| 20260906013628 | 22 | 180 | 4.8 | 9.7 | 0.00 | 0.66 | 0.66 | 65 | 1013.6 |
| 20260906013526 | 22 | 180 | 3.2 | 9.7 | 0.00 | 0.66 | 0.66 | 65 | 1013.6 |
| 20260906013425 | 22 | 180 | 3.2 | 9.7 | 0.00 | 0.66 | 0.66 | 65 | 1013.6 |
| 20260906013323 | 22 | 247 | 3.2 | 9.7 | 0.00 | 0.66 | 0.66 | 65 | 1013.5 |
| 20260906013224 | 23 | 180 | 3.2 | 8.0 | 0.00 | 0.66 | 0.66 | 65 | 1013.5 |
| 20260906013123 | 23 | 180 | 3.2 | 8.0 | 0.00 | 0.66 | 0.66 | 65 | 1013.5 |
| 20260906013021 | 23 | 180 | 3.2 | 8.0 | 0.00 | 0.66 | 0.66 | 65 | 1013.6 |
| 20260906012919 | 23 | 180 | 3.2 | 8.0 | 0.00 | 0.66 | 0.66 | 65 | 1013.6 |
| 20260906012819 | 23 | 180 | 3.2 | 8.0 | 0.00 | 0.66 | 0.66 | 65 | 1013.6 |
| 20260906012716 | 23 | 180 | 3.2 | 8.0 | 0.00 | 0.66 | 0.66 | 66 | 1013.6 |
| 20260906012617 | 23 | 180 | 3.2 | 8.0 | 0.00 | 0.66 | 0.66 | 66 | 1013.6 |
| 20260906012512 | 23 | 180 | 3.2 | 8.0 | 0.00 | 0.66 | 0.66 | 66 | 1013.7 |
| 20260906012416 | 23 | 180 | 3.2 | 9.7 | 0.00 | 0.66 | 0.66 | 66 | 1013.6 |
| 20260906012308 | 23 | 180 | 3.2 | 11.3 | 0.00 | 0.66 | 0.66 | 66 | 1013.6 |
| 20260906012206 | 23 | 180 | 3.2 | 11.3 | 0.00 | 0.66 | 0.66 | 66 | 1013.5 |
| 20260906012106 | 23 | 180 | 4.8 | 11.3 | 0.00 | 0.66 | 0.66 | 66 | 1013.5 |
| 20260906011914 | 23 | 180 | 4.8 | 11.3 | 0.00 | 0.66 | 0.66 | 66 | 1013.5 |
| 20260906011811 | 23 | 180 | 4.8 | 11.3 | 0.00 | 0.66 | 0.66 | 66 | 1013.5 |
| 20260906011703 | 23 | 180 | 4.8 | 11.3 | 0.00 | 0.66 | 0.66 | 66 | 1013.5 |
| 20260906011606 | 23 | 180 | 4.8 | 11.3 | 0.00 | 0.66 | 0.66 | 66 | 1013.4 |
| 20260906011501 | 23 | 180 | 3.2 | 11.3 | 0.00 | 0.66 | 0.66 | 66 | 1013.4 |
| 20260906011403 | 23 | 180 | 3.2 | 9.7 | 0.00 | 0.66 | 0.66 | 66 | 1013.4 |
| 20260906011301 | 23 | 180 | 3.2 | 8.0 | 0.00 | 0.66 | 0.66 | 66 | 1013.4 |
| 20260906011158 | 23 | 180 | 3.2 | 8.0 | 0.00 | 0.66 | 0.66 | 66 | 1013.4 |
| 20260906011056 | 23 | 180 | 3.2 | 8.0 | 0.00 | 0.66 | 0.66 | 66 | 1013.4 |
| 20260906010957 | 23 | 180 | 3.2 | 8.0 | 0.00 | 0.66 | 0.66 | 66 | 1013.4 |
| 20260906010854 | 23 | 180 | 3.2 | 8.0 | 0.00 | 0.66 | 0.66 | 66 | 1013.3 |
| 20260906010801 | 23 | 180 | 3.2 | 8.0 | 0.00 | 0.66 | 0.66 | 66 | 1013.3 |
| 20260906010648 | 23 | 180 | 4.8 | 16.1 | 0.00 | 0.66 | 0.66 | 66 | 1013.2 |
| 20260906010550 | 23 | 180 | 4.8 | 16.1 | 0.00 | 0.66 | 0.66 | 66 | 1013.2 |
| 20260906010446 | 23 | 180 | 4.8 | 16.1 | 0.00 | 0.66 | 0.66 | 66 | 1013.2 |
| 20260906010347 | 23 | 180 | 4.8 | 16.1 | 0.00 | 0.66 | 0.66 | 66 | 1013.1 |
| 20260906010246 | 23 | 180 | 4.8 | 16.1 | 0.00 | 0.66 | 0.66 | 66 | 1013.2 |
| 20260906010145 | 23 | 180 | 4.8 | 16.1 | 0.00 | 0.66 | 0.66 | 66 | 1013.2 |
| 20260906010042 | 23 | 180 | 4.8 | 16.1 | 0.00 | 0.66 | 0.66 | 66 | 1013.2 |
| 20260906005943 | 23 | 180 | 4.8 | 16.1 | 0.00 | 0.66 | 0.66 | 66 | 1013.2 |
| 20260906005842 | 23 | 180 | 3.2 | 16.1 | 0.00 | 0.66 | 0.66 | 65 | 1013.1 |
| 20260906005738 | 23 | 180 | 3.2 | 16.1 | 0.00 | 0.66 | 0.66 | 65 | 1013.1 |
| 20260906005639 | 23 | 180 | 3.2 | 9.7 | 0.00 | 0.66 | 0.66 | 65 | 1013.0 |
| 20260906005538 | 23 | 180 | 3.2 | 9.7 | 0.00 | 0.66 | 0.66 | 65 | 1013.0 |
| 20260906005438 | 23 | 180 | 3.2 | 9.7 | 0.00 | 0.66 | 0.66 | 65 | 1013.1 |
| 20260906005340 | 23 | 180 | 3.2 | 6.4 | 0.00 | 0.66 | 0.66 | 65 | 1013.1 |
| 20260906005238 | 23 | 180 | 3.2 | 8.0 | 0.00 | 0.66 | 0.66 | 65 | 1013.2 |
| 20260906005137 | 23 | 180 | 3.2 | 11.3 | 0.00 | 0.66 | 0.66 | 65 | 1013.2 |
| 20260906005034 | 23 | 180 | 3.2 | 11.3 | 0.00 | 0.66 | 0.66 | 65 | 1013.3 |
| 20260906004937 | 23 | 180 | 3.2 | 11.3 | 0.00 | 0.66 | 0.66 | 65 | 1013.3 |
| 20260906004836 | 23 | 180 | 3.2 | 11.3 | 0.00 | 0.66 | 0.66 | 65 | 1013.2 |
| 20260906004733 | 23 | 180 | 3.2 | 11.3 | 0.00 | 0.66 | 0.66 | 64 | 1013.1 |
| 20260906004631 | 23 | 180 | 3.2 | 11.3 | 0.00 | 0.66 | 0.66 | 64 | 1013.0 |
| 20260906004530 | 23 | 180 | 3.2 | 11.3 | 0.00 | 0.66 | 0.66 | 64 | 1013.0 |
| 20260906004429 | 23 | 180 | 3.2 | 11.3 | 0.00 | 0.66 | 0.66 | 64 | 1013.0 |
| 20260906004329 | 23 | 180 | 3.2 | 11.3 | 0.00 | 0.66 | 0.66 | 64 | 1013.0 |
| 20260906004228 | 23 | 180 | 3.2 | 11.3 | 0.00 | 0.66 | 0.66 | 64 | 1013.1 |
| 20260906004127 | 23 | 180 | 3.2 | 8.0 | 0.00 | 0.66 | 0.66 | 63 | 1013.1 |
| 20260906004027 | 23 | 180 | 3.2 | 8.0 | 0.00 | 0.66 | 0.66 | 63 | 1013.1 |
| 20260906003924 | 23 | 180 | 3.2 | 9.7 | 0.00 | 0.66 | 0.66 | 63 | 1013.2 |
| 20260906003824 | 23 | 180 | 4.8 | 12.9 | 0.00 | 0.66 | 0.66 | 63 | 1013.1 |
| 20260906003726 | 23 | 180 | 4.8 | 12.9 | 0.00 | 0.66 | 0.66 | 63 | 1013.0 |
| 20260906003624 | 23 | 180 | 4.8 | 12.9 | 0.00 | 0.66 | 0.66 | 63 | 1013.0 |
| 20260906003525 | 23 | 180 | 4.8 | 12.9 | 0.00 | 0.66 | 0.66 | 63 | 1013.0 |
| 20260906003425 | 23 | 180 | 4.8 | 12.9 | 0.00 | 0.66 | 0.66 | 63 | 1013.0 |
| 20260906003322 | 23 | 180 | 3.2 | 12.9 | 0.00 | 0.66 | 0.66 | 63 | 1013.0 |
| 20260906003221 | 23 | 180 | 3.2 | 12.9 | 0.00 | 0.66 | 0.66 | 63 | 1013.0 |
| 20260906003125 | 23 | 180 | 3.2 | 12.9 | 0.00 | 0.66 | 0.66 | 63 | 1012.9 |
| 20260906003020 | 23 | 180 | 3.2 | 12.9 | 0.00 | 0.66 | 0.66 | 63 | 1012.9 |
| 20260906002921 | 23 | 180 | 3.2 | 12.9 | 0.00 | 0.66 | 0.66 | 63 | 1012.9 |
| 20260906002817 | 23 | 180 | 3.2 | 9.7 | 0.00 | 0.66 | 0.66 | 63 | 1012.8 |
| 20260906002713 | 23 | 180 | 3.2 | 9.7 | 0.00 | 0.66 | 0.66 | 62 | 1012.7 |
| 20260906002614 | 23 | 180 | 3.2 | 9.7 | 0.00 | 0.66 | 0.66 | 62 | 1012.7 |
| 20260906002513 | 23 | 180 | 1.6 | 9.7 | 0.00 | 0.66 | 0.66 | 62 | 1012.7 |
| 20260906002406 | 23 | 180 | 1.6 | 9.7 | 0.00 | 0.66 | 0.66 | 63 | 1012.7 |
| 20260906002308 | 23 | 180 | 1.6 | 9.7 | 0.00 | 0.66 | 0.66 | 63 | 1012.7 |
| 20260906002159 | 23 | 180 | 1.6 | 9.7 | 0.00 | 0.66 | 0.66 | 63 | 1012.7 |
| 20260906002114 | 23 | 180 | 1.6 | 9.7 | 0.00 | 0.66 | 0.66 | 63 | 1012.7 |
| 20260906001958 | 23 | 180 | 1.6 | 9.7 | 0.00 | 0.66 | 0.66 | 63 | 1012.7 |
| 20260906001858 | 23 | 180 | 1.6 | 9.7 | 0.00 | 0.66 | 0.66 | 63 | 1012.7 |
| 20260906001756 | 23 | 180 | 1.6 | 9.7 | 0.00 | 0.66 | 0.66 | 63 | 1012.7 |
| 20260906001659 | 23 | 180 | 1.6 | 4.8 | 0.00 | 0.66 | 0.66 | 63 | 1012.7 |
| 20260906001554 | 23 | 180 | 1.6 | 4.8 | 0.00 | 0.66 | 0.66 | 63 | 1012.7 |
| 20260906001455 | 23 | 180 | 1.6 | 4.8 | 0.00 | 0.66 | 0.66 | 63 | 1012.7 |
| 20260906001348 | 23 | 180 | 1.6 | 4.8 | 0.00 | 0.66 | 0.66 | 63 | 1012.7 |
| 20260906001248 | 23 | 180 | 1.6 | 4.8 | 0.00 | 0.66 | 0.66 | 63 | 1012.7 |
| 20260906001146 | 23 | 180 | 1.6 | 4.8 | 0.00 | 0.66 | 0.66 | 63 | 1012.6 |
| 20260906001048 | 23 | 180 | 1.6 | 4.8 | 0.00 | 0.66 | 0.66 | 63 | 1012.6 |
| 20260906000944 | 23 | 180 | 0.0 | 4.8 | 0.00 | 0.66 | 0.66 | 63 | 1012.6 |
| 20260906000844 | 23 | 180 | 0.0 | 4.8 | 0.00 | 0.66 | 0.66 | 64 | 1012.6 |
| 20260906000745 | 23 | 180 | 0.0 | 3.2 | 0.00 | 0.66 | 0.66 | 64 | 1012.7 |
| 20260906000643 | 23 | 180 | 0.0 | 3.2 | 0.00 | 0.66 | 0.66 | 64 | 1012.7 |
| 20260906000544 | 23 | 180 | 0.0 | 3.2 | 0.00 | 0.66 | 0.66 | 64 | 1012.7 |
| 20260906000445 | 23 | 180 | 0.0 | 3.2 | 0.00 | 0.66 | 0.66 | 64 | 1012.7 |
| 20260906000348 | 23 | 180 | 0.0 | 3.2 | 0.00 | 0.66 | 0.66 | 64 | 1012.7 |
| 20260906000244 | 23 | 180 | 0.0 | 3.2 | 0.00 | 0.66 | 0.66 | 64 | 1012.6 |
| 20260906000144 | 23 | 180 | 0.0 | 3.2 | 0.00 | 0.66 | 0.66 | 64 | 1012.6 |
| 20260906000043 | 23 | 180 | 0.0 | 3.2 | 0.00 | 0.66 | 0.66 | 64 | 1012.6 |
| 20260905235942 | 23 | 180 | 0.0 | 3.2 | 0.00 | 0.66 | 0.66 | 64 | 1012.6 |
| 20260905235840 | 23 | 180 | 0.0 | 3.2 | 0.00 | 0.66 | 0.66 | 64 | 1012.6 |
| 20260905235745 | 23 | 180 | 0.0 | 3.2 | 0.00 | 0.66 | 0.66 | 64 | 1012.6 |
| 20260905235639 | 23 | 180 | 0.0 | 3.2 | 0.00 | 0.66 | 0.66 | 65 | 1012.7 |
| 20260905235548 | 23 | 180 | 0.0 | 3.2 | 0.00 | 0.66 | 0.66 | 65 | 1012.7 |
| 20260905235438 | 23 | 180 | 0.0 | 3.2 | 0.00 | 0.66 | 0.66 | 65 | 1012.7 |
| 20260905235335 | 23 | 180 | 0.0 | 3.2 | 0.00 | 0.66 | 0.66 | 65 | 1012.7 |
| 20260905235234 | 23 | 180 | 0.0 | 3.2 | 0.00 | 0.66 | 0.66 | 65 | 1012.7 |
| 20260905235133 | 23 | 180 | 0.0 | 3.2 | 0.00 | 0.66 | 0.66 | 65 | 1012.7 |
| 20260905235033 | 23 | 180 | 0.0 | 3.2 | 0.00 | 0.66 | 0.66 | 65 | 1012.7 |
| 20260905234936 | 23 | 180 | 1.6 | 3.2 | 0.00 | 0.66 | 0.66 | 65 | 1012.7 |
| 20260905234832 | 23 | 180 | 1.6 | 3.2 | 0.00 | 0.66 | 0.66 | 65 | 1012.7 |
| 20260905234731 | 23 | 180 | 1.6 | 3.2 | 0.00 | 0.66 | 0.66 | 65 | 1012.6 |
| 20260905234628 | 23 | 180 | 1.6 | 3.2 | 0.00 | 0.66 | 0.66 | 65 | 1012.6 |
| 20260905234525 | 23 | 194 | 1.6 | 3.2 | 0.00 | 0.66 | 0.66 | 65 | 1012.6 |
| 20260905234427 | 23 | 194 | 1.6 | 3.2 | 0.00 | 0.66 | 0.66 | 65 | 1012.6 |
| 20260905234324 | 23 | 194 | 1.6 | 3.2 | 0.00 | 0.66 | 0.66 | 65 | 1012.4 |
| 20260905234226 | 23 | 194 | 1.6 | 3.2 | 0.00 | 0.66 | 0.66 | 65 | 1012.4 |
| 20260905234123 | 23 | 193 | 1.6 | 3.2 | 0.00 | 0.66 | 0.66 | 65 | 1012.6 |
| 20260905234021 | 23 | 193 | 1.6 | 3.2 | 0.00 | 0.66 | 0.66 | 65 | 1012.6 |
| 20260905233922 | 23 | 232 | 0.0 | 3.2 | 0.00 | 0.66 | 0.66 | 66 | 1012.4 |
| 20260905233823 | 23 | 259 | 0.0 | 3.2 | 0.00 | 0.66 | 0.66 | 66 | 1012.3 |
| 20260905233722 | 23 | 258 | 0.0 | 3.2 | 0.00 | 0.66 | 0.66 | 66 | 1012.2 |
| 20260905233622 | 23 | 115 | 0.0 | 1.6 | 0.00 | 0.66 | 0.66 | 66 | 1012.3 |
| 20260905233519 | 23 | 115 | 0.0 | 1.6 | 0.00 | 0.66 | 0.66 | 66 | 1012.4 |
| 20260905233419 | 23 | 115 | 0.0 | 1.6 | 0.00 | 0.66 | 0.66 | 66 | 1012.4 |
| 20260905233317 | 23 | 115 | 0.0 | 1.6 | 0.00 | 0.66 | 0.66 | 66 | 1012.4 |
| 20260905233216 | 23 | 115 | 0.0 | 1.6 | 0.00 | 0.66 | 0.66 | 66 | 1012.3 |
| 20260905233118 | 23 | 115 | 0.0 | 1.6 | 0.00 | 0.66 | 0.66 | 66 | 1012.3 |
| 20260905233015 | 23 | 115 | 0.0 | 1.6 | 0.00 | 0.66 | 0.66 | 65 | 1012.4 |
| 20260905232913 | 23 | 115 | 0.0 | 1.6 | 0.00 | 0.66 | 0.66 | 65 | 1012.4 |
| 20260905232813 | 23 | 115 | 0.0 | 1.6 | 0.00 | 0.66 | 0.66 | 65 | 1012.4 |
| 20260905232712 | 23 | 115 | 0.0 | 1.6 | 0.00 | 0.66 | 0.66 | 65 | 1012.4 |
| 20260905232611 | 23 | 115 | 0.0 | 1.6 | 0.00 | 0.66 | 0.66 | 65 | 1012.4 |
| 20260905232510 | 23 | 115 | 0.0 | 1.6 | 0.00 | 0.66 | 0.66 | 65 | 1012.4 |
| 20260905232411 | 23 | 115 | 0.0 | 1.6 | 0.00 | 0.66 | 0.66 | 65 | 1012.6 |
| 20260905232309 | 23 | 115 | 0.0 | 1.6 | 0.00 | 0.66 | 0.66 | 65 | 1012.4 |
| 20260905232205 | 23 | 115 | 0.0 | 1.6 | 0.00 | 0.66 | 0.66 | 65 | 1012.4 |
| 20260905232105 | 23 | 115 | 0.0 | 1.6 | 0.00 | 0.66 | 0.66 | 65 | 1012.4 |
| 20260905232007 | 23 | 115 | 0.0 | 1.6 | 0.00 | 0.66 | 0.66 | 65 | 1012.3 |
| 20260905231900 | 23 | 115 | 0.0 | 1.6 | 0.00 | 0.66 | 0.66 | 65 | 1012.4 |
| 20260905231802 | 23 | 115 | 0.0 | 1.6 | 0.00 | 0.66 | 0.66 | 65 | 1012.4 |
| 20260905231658 | 23 | 115 | 0.0 | 1.6 | 0.00 | 0.66 | 0.66 | 65 | 1012.4 |
| 20260905231555 | 23 | 115 | 0.0 | 1.6 | 0.00 | 0.66 | 0.66 | 64 | 1012.4 |
| 20260905231456 | 23 | 115 | 0.0 | 1.6 | 0.00 | 0.66 | 0.66 | 64 | 1012.4 |
| 20260905231355 | 23 | 115 | 0.0 | 3.2 | 0.00 | 0.66 | 0.66 | 64 | 1012.4 |
| 20260905231254 | 23 | 115 | 1.6 | 3.2 | 0.00 | 0.66 | 0.66 | 64 | 1012.4 |
| 20260905231154 | 23 | 115 | 1.6 | 3.2 | 0.00 | 0.66 | 0.66 | 65 | 1012.4 |
| 20260905231047 | 23 | 115 | 1.6 | 3.2 | 0.00 | 0.66 | 0.66 | 65 | 1012.4 |
| 20260905230949 | 23 | 147 | 1.6 | 3.2 | 0.00 | 0.66 | 0.66 | 65 | 1012.4 |
| 20260905230845 | 23 | 147 | 1.6 | 3.2 | 0.00 | 0.66 | 0.66 | 65 | 1012.3 |
| 20260905230753 | 23 | 147 | 1.6 | 3.2 | 0.00 | 0.66 | 0.66 | 65 | 1012.3 |
| 20260905230644 | 23 | 147 | 1.6 | 3.2 | 0.00 | 0.66 | 0.66 | 65 | 1012.2 |
| 20260905230545 | 23 | 147 | 1.6 | 3.2 | 0.00 | 0.66 | 0.66 | 65 | 1012.3 |
| 20260905230441 | 23 | 147 | 1.6 | 3.2 | 0.00 | 0.66 | 0.66 | 65 | 1012.3 |
| 20260905230343 | 23 | 147 | 1.6 | 3.2 | 0.00 | 0.66 | 0.66 | 65 | 1012.4 |
| 20260905230236 | 23 | 147 | 1.6 | 3.2 | 0.00 | 0.66 | 0.66 | 65 | 1012.4 |
| 20260905230136 | 23 | 147 | 1.6 | 3.2 | 0.00 | 0.66 | 0.66 | 65 | 1012.4 |
| 20260905230033 | 23 | 147 | 1.6 | 3.2 | 0.00 | 0.66 | 0.66 | 65 | 1012.4 |
| 20260905225936 | 23 | 147 | 1.6 | 3.2 | 0.00 | 0.66 | 0.66 | 65 | 1012.4 |
| 20260905225831 | 23 | 103 | 1.6 | 3.2 | 0.00 | 0.66 | 0.66 | 65 | 1012.6 |
| 20260905225734 | 23 | 103 | 1.6 | 3.2 | 0.00 | 0.66 | 0.66 | 65 | 1012.6 |
| 20260905225630 | 23 | 88 | 0.0 | 3.2 | 0.00 | 0.66 | 0.66 | 66 | 1012.7 |
| 20260905225532 | 23 | 180 | 1.6 | 3.2 | 0.00 | 0.66 | 0.66 | 66 | 1012.8 |
| 20260905225427 | 23 | 180 | 1.6 | 3.2 | 0.00 | 0.66 | 0.66 | 66 | 1012.8 |
| 20260905225327 | 22 | 180 | 1.6 | 4.8 | 0.00 | 0.66 | 0.66 | 66 | 1012.9 |
| 20260905225227 | 22 | 180 | 1.6 | 4.8 | 0.00 | 0.66 | 0.66 | 66 | 1013.0 |
| 20260905225128 | 22 | 180 | 1.6 | 6.4 | 0.00 | 0.66 | 0.66 | 66 | 1013.1 |
| 20260905225026 | 22 | 347 | 1.6 | 6.4 | 0.00 | 0.66 | 0.66 | 67 | 1013.2 |
| 20260905224927 | 22 | 105 | 1.6 | 6.4 | 0.00 | 0.66 | 0.66 | 67 | 1013.1 |
| 20260905224823 | 22 | 4 | 1.6 | 6.4 | 0.00 | 0.66 | 0.66 | 67 | 1013.2 |
| 20260905224725 | 22 | 39 | 1.6 | 6.4 | 0.00 | 0.66 | 0.66 | 67 | 1013.3 |
| 20260905224621 | 22 | 38 | 1.6 | 6.4 | 0.00 | 0.66 | 0.66 | 67 | 1013.3 |
| 20260905224523 | 22 | 109 | 1.6 | 6.4 | 0.00 | 0.66 | 0.66 | 67 | 1013.3 |
| 20260905224420 | 22 | 49 | 1.6 | 6.4 | 0.00 | 0.66 | 0.66 | 67 | 1013.2 |
| 20260905224320 | 22 | 43 | 0.0 | 6.4 | 0.00 | 0.66 | 0.66 | 67 | 1013.2 |
| 20260905224216 | 22 | 85 | 0.0 | 3.2 | 0.00 | 0.66 | 0.66 | 67 | 1013.2 |
| 20260905224113 | 22 | 359 | 0.0 | 3.2 | 0.00 | 0.66 | 0.66 | 67 | 1013.2 |
| 20260905223912 | 22 | 222 | 0.0 | 1.6 | 0.00 | 0.66 | 0.66 | 67 | 1013.2 |
| 20260905223810 | 22 | 221 | 0.0 | 1.6 | 0.00 | 0.66 | 0.66 | 67 | 1013.2 |
| 20260905223713 | 22 | 222 | 0.0 | 1.6 | 0.00 | 0.66 | 0.66 | 66 | 1013.1 |
| 20260905223607 | 22 | 222 | 0.0 | 1.6 | 0.00 | 0.66 | 0.66 | 66 | 1013.0 |
| 20260905223506 | 22 | 222 | 0.0 | 1.6 | 0.00 | 0.66 | 0.66 | 67 | 1013.0 |
| 20260905223406 | 22 | 221 | 0.0 | 1.6 | 0.00 | 0.66 | 0.66 | 67 | 1013.0 |
| 20260905223304 | 22 | 209 | 0.0 | 1.6 | 0.00 | 0.66 | 0.66 | 67 | 1012.9 |
| 20260905223205 | 22 | 209 | 0.0 | 1.6 | 0.00 | 0.66 | 0.66 | 67 | 1012.8 |
| 20260905223109 | 22 | 209 | 0.0 | 1.6 | 0.00 | 0.66 | 0.66 | 67 | 1012.7 |
| 20260905223004 | 22 | 209 | 0.0 | 1.6 | 0.00 | 0.66 | 0.66 | 67 | 1012.6 |
| 20260905222905 | 22 | 209 | 0.0 | 1.6 | 0.00 | 0.66 | 0.66 | 68 | 1012.4 |
| 20260905222805 | 22 | 209 | 0.0 | 1.6 | 0.00 | 0.66 | 0.66 | 68 | 1012.4 |
| 20260905222706 | 22 | 209 | 0.0 | 1.6 | 0.00 | 0.66 | 0.66 | 69 | 1012.3 |
| 20260905222603 | 22 | 209 | 0.0 | 1.6 | 0.00 | 0.66 | 0.66 | 69 | 1012.2 |
| 20260905222500 | 22 | 209 | 0.0 | 1.6 | 0.00 | 0.66 | 0.66 | 69 | 1012.2 |
| 20260905222403 | 22 | 209 | 0.0 | 1.6 | 0.03 | 0.66 | 0.66 | 68 | 1012.2 |
| 20260905222257 | 22 | 209 | 0.0 | 3.2 | 0.05 | 0.66 | 0.66 | 69 | 1012.2 |
| 20260905222157 | 22 | 209 | 0.0 | 3.2 | 0.08 | 0.66 | 0.66 | 69 | 1012.2 |
| 20260905222057 | 22 | 209 | 0.0 | 3.2 | 0.08 | 0.66 | 0.66 | 69 | 1012.2 |
| 20260905221956 | 22 | 209 | 0.0 | 3.2 | 0.15 | 0.66 | 0.66 | 69 | 1012.2 |
| 20260905221854 | 22 | 209 | 0.0 | 3.2 | 0.20 | 0.66 | 0.66 | 69 | 1012.2 |
| 20260905221755 | 22 | 209 | 0.0 | 3.2 | 0.25 | 0.66 | 0.66 | 69 | 1012.2 |
| 20260905221651 | 22 | 209 | 0.0 | 3.2 | 0.36 | 0.66 | 0.66 | 69 | 1012.2 |
| 20260905221553 | 22 | 209 | 1.6 | 3.2 | 0.46 | 0.66 | 0.66 | 70 | 1012.2 |
| 20260905221452 | 22 | 209 | 1.6 | 3.2 | 0.53 | 0.66 | 0.66 | 70 | 1012.2 |
| 20260905221352 | 22 | 209 | 1.6 | 3.2 | 0.56 | 0.66 | 0.66 | 70 | 1012.2 |
| 20260905221249 | 22 | 198 | 1.6 | 3.2 | 0.58 | 0.66 | 0.66 | 70 | 1012.2 |
| 20260905221141 | 22 | 198 | 1.6 | 3.2 | 0.61 | 0.66 | 0.66 | 70 | 1012.2 |
| 20260905221042 | 22 | 198 | 1.6 | 3.2 | 0.61 | 0.66 | 0.66 | 70 | 1012.2 |
| 20260905220941 | 22 | 198 | 1.6 | 3.2 | 0.61 | 0.66 | 0.66 | 70 | 1012.2 |
| 20260905220842 | 22 | 198 | 1.6 | 3.2 | 0.61 | 0.66 | 0.66 | 71 | 1012.2 |
| 20260905220739 | 22 | 198 | 1.6 | 3.2 | 0.61 | 0.66 | 0.66 | 71 | 1012.2 |
| 20260905220637 | 22 | 198 | 1.6 | 3.2 | 0.61 | 0.66 | 0.66 | 71 | 1012.2 |
| 20260905220535 | 22 | 198 | 0.0 | 3.2 | 0.64 | 0.66 | 0.66 | 71 | 1012.1 |
| 20260905220437 | 22 | 198 | 0.0 | 3.2 | 0.64 | 0.66 | 0.66 | 71 | 1012.1 |
| 20260905220331 | 22 | 198 | 0.0 | 3.2 | 0.64 | 0.66 | 0.66 | 71 | 1012.1 |
| 20260905220230 | 22 | 316 | 0.0 | 3.2 | 0.64 | 0.66 | 0.66 | 71 | 1012.1 |
| 20260905220128 | 22 | 316 | 0.0 | 3.2 | 0.64 | 0.66 | 0.66 | 72 | 1012.1 |
| 20260905220027 | 22 | 326 | 0.0 | 3.2 | 0.64 | 0.66 | 0.66 | 72 | 1012.1 |
| 20260905215925 | 22 | 348 | 0.0 | 3.2 | 0.64 | 0.66 | 0.66 | 72 | 1012.1 |
| 20260905215828 | 22 | 348 | 0.0 | 1.6 | 0.64 | 0.66 | 0.66 | 72 | 1012.2 |
| 20260905215728 | 22 | 66 | 0.0 | 1.6 | 0.64 | 0.66 | 0.66 | 73 | 1012.1 |
| 20260905215628 | 22 | 66 | 0.0 | 3.2 | 0.64 | 0.66 | 0.66 | 73 | 1012.2 |
| 20260905215525 | 22 | 66 | 0.0 | 3.2 | 0.64 | 0.66 | 0.66 | 73 | 1012.2 |
| 20260905215422 | 22 | 66 | 0.0 | 3.2 | 0.64 | 0.66 | 0.66 | 74 | 1012.3 |
| 20260905215324 | 22 | 66 | 0.0 | 3.2 | 0.64 | 0.66 | 0.66 | 74 | 1012.3 |
| 20260905215215 | 22 | 66 | 0.0 | 3.2 | 0.64 | 0.66 | 0.66 | 75 | 1012.4 |
| 20260905215115 | 22 | 66 | 0.0 | 3.2 | 0.64 | 0.66 | 0.66 | 75 | 1012.4 |
| 20260905215013 | 22 | 66 | 1.6 | 4.8 | 0.64 | 0.66 | 0.66 | 75 | 1012.3 |
| 20260905214916 | 22 | 66 | 1.6 | 4.8 | 0.64 | 0.66 | 0.66 | 75 | 1012.3 |
| 20260905214813 | 22 | 66 | 1.6 | 4.8 | 0.64 | 0.66 | 0.66 | 75 | 1012.2 |
| 20260905214713 | 22 | 73 | 1.6 | 4.8 | 0.64 | 0.66 | 0.66 | 75 | 1012.2 |
| 20260905214609 | 23 | 104 | 1.6 | 4.8 | 0.64 | 0.66 | 0.66 | 75 | 1012.2 |
| 20260905214512 | 23 | 127 | 3.2 | 4.8 | 0.64 | 0.66 | 0.66 | 76 | 1012.1 |
| 20260905214404 | 23 | 127 | 3.2 | 6.4 | 0.64 | 0.66 | 0.66 | 75 | 1012.0 |
| 20260905214309 | 23 | 127 | 3.2 | 6.4 | 0.64 | 0.66 | 0.66 | 74 | 1012.0 |
| 20260905214203 | 23 | 139 | 3.2 | 8.0 | 0.64 | 0.66 | 0.66 | 74 | 1012.0 |
| 20260905214103 | 23 | 166 | 4.8 | 8.0 | 0.64 | 0.66 | 0.66 | 74 | 1011.9 |
| 20260905214000 | 23 | 170 | 4.8 | 16.1 | 0.64 | 0.66 | 0.66 | 75 | 1011.9 |
| 20260905213901 | 23 | 203 | 4.8 | 16.1 | 0.64 | 0.66 | 0.66 | 76 | 1011.9 |
| 20260905213759 | 23 | 194 | 4.8 | 16.1 | 0.64 | 0.66 | 0.66 | 77 | 1012.0 |
| 20260905213658 | 23 | 337 | 4.8 | 16.1 | 0.64 | 0.66 | 0.66 | 76 | 1012.1 |
| 20260905213553 | 23 | 302 | 4.8 | 16.1 | 0.64 | 0.66 | 0.66 | 77 | 1012.2 |
| 20260905213454 | 23 | 328 | 3.2 | 16.1 | 0.64 | 0.66 | 0.66 | 77 | 1012.4 |
| 20260905213352 | 24 | 150 | 3.2 | 16.1 | 0.64 | 0.66 | 0.66 | 77 | 1012.4 |
| 20260905213252 | 24 | 107 | 3.2 | 16.1 | 0.64 | 0.66 | 0.66 | 77 | 1012.4 |
| 20260905213148 | 24 | 83 | 3.2 | 16.1 | 0.64 | 0.66 | 0.66 | 77 | 1012.3 |
| 20260905213048 | 25 | 124 | 3.2 | 16.1 | 0.64 | 0.66 | 0.66 | 77 | 1012.3 |
| 20260905212947 | 25 | 180 | 3.2 | 9.7 | 0.64 | 0.66 | 0.66 | 77 | 1012.3 |
| 20260905212847 | 25 | 180 | 4.8 | 19.3 | 0.64 | 0.66 | 0.66 | 77 | 1012.3 |
| 20260905212754 | 25 | 180 | 6.4 | 24.1 | 0.64 | 0.66 | 0.66 | 77 | 1012.3 |
| 20260905212648 | 25 | 180 | 6.4 | 24.1 | 0.64 | 0.66 | 0.66 | 76 | 1012.3 |
| 20260905212545 | 26 | 180 | 8.0 | 29.0 | 0.64 | 0.66 | 0.66 | 77 | 1012.4 |
| 20260905212444 | 26 | 180 | 8.0 | 29.0 | 0.61 | 0.64 | 0.66 | 77 | 1012.4 |
| 20260905212348 | 26 | 180 | 8.0 | 29.0 | 0.61 | 0.64 | 0.64 | 76 | 1012.4 |
| 20260905212243 | 26 | 180 | 8.0 | 29.0 | 0.58 | 0.61 | 0.64 | 76 | 1012.4 |
| 20260905212141 | 27 | 180 | 8.0 | 29.0 | 0.56 | 0.58 | 0.61 | 76 | 1012.4 |
| 20260905212040 | 27 | 180 | 8.0 | 29.0 | 0.48 | 0.51 | 0.58 | 76 | 1012.4 |
| 20260905211938 | 27 | 163 | 6.4 | 29.0 | 0.43 | 0.46 | 0.51 | 76 | 1012.4 |
| 20260905211837 | 28 | 104 | 4.8 | 29.0 | 0.43 | 0.46 | 0.46 | 76 | 1012.2 |
| 20260905211739 | 28 | 88 | 4.8 | 29.0 | 0.38 | 0.41 | 0.41 | 76 | 1012.1 |
| 20260905211639 | 28 | 64 | 3.2 | 29.0 | 0.28 | 0.30 | 0.36 | 76 | 1011.9 |
| 20260905211540 | 29 | 88 | 3.2 | 9.7 | 0.18 | 0.20 | 0.23 | 76 | 1011.9 |
| 20260905211437 | 29 | 110 | 1.6 | 9.7 | 0.10 | 0.13 | 0.15 | 75 | 1011.9 |
| 20260905211339 | 29 | 141 | 3.2 | 9.7 | 0.08 | 0.10 | 0.10 | 75 | 1011.8 |
| 20260905211238 | 29 | 151 | 3.2 | 9.7 | 0.05 | 0.08 | 0.08 | 75 | 1011.7 |
| 20260905211138 | 29 | 175 | 3.2 | 9.7 | 0.03 | 0.05 | 0.08 | 75 | 1011.7 |
| 20260905211036 | 30 | 166 | 3.2 | 9.7 | 0.03 | 0.05 | 0.05 | 75 | 1011.6 |
| 20260905210938 | 30 | 229 | 3.2 | 9.7 | 0.03 | 0.05 | 0.05 | 75 | 1011.6 |
| 20260905210833 | 30 | 213 | 3.2 | 9.7 | 0.03 | 0.05 | 0.05 | 74 | 1011.5 |
| 20260905210741 | 30 | 213 | 3.2 | 9.7 | 0.03 | 0.05 | 0.05 | 73 | 1011.5 |
| 20260905210636 | 30 | 175 | 3.2 | 9.7 | 0.03 | 0.05 | 0.05 | 73 | 1011.5 |
| 20260905210549 | 30 | 199 | 3.2 | 9.7 | 0.00 | 0.03 | 0.05 | 73 | 1011.4 |
| 20260905210442 | 30 | 196 | 3.2 | 9.7 | 0.00 | 0.03 | 0.03 | 72 | 1011.5 |
| 20260905210346 | 30 | 203 | 3.2 | 9.7 | 0.00 | 0.03 | 0.03 | 73 | 1011.5 |
| 20260905210239 | 31 | 204 | 3.2 | 9.7 | 0.00 | 0.03 | 0.03 | 74 | 1011.4 |
| 20260905210133 | 31 | 222 | 4.8 | 11.3 | 0.00 | 0.03 | 0.03 | 73 | 1011.5 |
| 20260905210031 | 31 | 199 | 4.8 | 11.3 | 0.00 | 0.03 | 0.03 | 72 | 1011.4 |
| 20260905205934 | 31 | 189 | 4.8 | 11.3 | 0.00 | 0.03 | 0.03 | 72 | 1011.4 |
| 20260905205831 | 31 | 258 | 4.8 | 11.3 | 0.00 | 0.03 | 0.03 | 68 | 1011.4 |
| 20260905205731 | 31 | 189 | 3.2 | 11.3 | 0.00 | 0.03 | 0.03 | 69 | 1011.5 |
| 20260905205630 | 31 | 147 | 3.2 | 11.3 | 0.00 | 0.03 | 0.03 | 72 | 1011.5 |
| 20260905205532 | 31 | 77 | 3.2 | 11.3 | 0.00 | 0.03 | 0.03 | 71 | 1011.6 |
| 20260905205424 | 31 | 206 | 3.2 | 11.3 | 0.00 | 0.03 | 0.03 | 72 | 1011.6 |
| 20260905205324 | 31 | 76 | 4.8 | 11.3 | 0.00 | 0.03 | 0.03 | 69 | 1011.6 |
| 20260905205221 | 31 | 151 | 4.8 | 16.1 | 0.00 | 0.03 | 0.03 | 70 | 1011.6 |
| 20260905205120 | 31 | 147 | 4.8 | 16.1 | 0.00 | 0.03 | 0.03 | 70 | 1011.7 |
| 20260905205017 | 31 | 142 | 4.8 | 16.1 | 0.00 | 0.03 | 0.03 | 70 | 1011.6 |
| 20260905204919 | 31 | 260 | 4.8 | 16.1 | 0.00 | 0.03 | 0.03 | 70 | 1011.7 |
| 20260905204817 | 31 | 137 | 4.8 | 16.1 | 0.00 | 0.03 | 0.03 | 69 | 1011.7 |
| 20260905204718 | 31 | 14 | 6.4 | 16.1 | 0.00 | 0.03 | 0.03 | 69 | 1011.8 |
| 20260905204617 | 31 | 102 | 6.4 | 16.1 | 0.00 | 0.03 | 0.03 | 70 | 1011.8 |
| 20260905204518 | 31 | 95 | 6.4 | 16.1 | 0.00 | 0.03 | 0.03 | 68 | 1011.8 |
| 20260905204422 | 31 | 141 | 8.0 | 16.1 | 0.00 | 0.03 | 0.03 | 69 | 1011.8 |
| 20260905204319 | 31 | 139 | 8.0 | 16.1 | 0.00 | 0.03 | 0.03 | 69 | 1011.8 |
| 20260905204217 | 31 | 105 | 8.0 | 14.5 | 0.00 | 0.03 | 0.03 | 69 | 1011.8 |
| 20260905204118 | 31 | 110 | 8.0 | 14.5 | 0.00 | 0.03 | 0.03 | 68 | 1011.8 |
| 20260905204018 | 31 | 158 | 8.0 | 14.5 | 0.00 | 0.03 | 0.03 | 69 | 1011.9 |
| 20260905203917 | 31 | 104 | 8.0 | 14.5 | 0.00 | 0.03 | 0.03 | 69 | 1011.9 |
| 20260905203817 | 31 | 123 | 8.0 | 14.5 | 0.00 | 0.03 | 0.03 | 68 | 1011.9 |
| 20260905203719 | 31 | 106 | 6.4 | 12.9 | 0.00 | 0.03 | 0.03 | 69 | 1011.9 |
| 20260905203619 | 31 | 107 | 6.4 | 12.9 | 0.00 | 0.03 | 0.03 | 68 | 1011.9 |
| 20260905203517 | 31 | 91 | 6.4 | 12.9 | 0.00 | 0.03 | 0.03 | 68 | 1011.9 |
| 20260905203419 | 31 | 126 | 6.4 | 12.9 | 0.00 | 0.03 | 0.03 | 70 | 1011.9 |
| 20260905203317 | 31 | 100 | 6.4 | 11.3 | 0.00 | 0.03 | 0.03 | 68 | 1011.9 |
| 20260905203217 | 31 | 153 | 4.8 | 11.3 | 0.00 | 0.03 | 0.03 | 70 | 1011.9 |
| 20260905203118 | 31 | 180 | 6.4 | 14.5 | 0.00 | 0.03 | 0.03 | 69 | 1011.9 |
| 20260905203019 | 31 | 103 | 4.8 | 14.5 | 0.00 | 0.03 | 0.03 | 71 | 1012.0 |
| 20260905202917 | 31 | 152 | 4.8 | 14.5 | 0.00 | 0.03 | 0.03 | 70 | 1012.0 |
| 20260905202818 | 31 | 104 | 4.8 | 14.5 | 0.00 | 0.03 | 0.03 | 70 | 1012.0 |
| 20260905202717 | 31 | 147 | 4.8 | 14.5 | 0.00 | 0.03 | 0.03 | 71 | 1012.1 |
| 20260905202617 | 31 | 110 | 4.8 | 14.5 | 0.00 | 0.03 | 0.03 | 72 | 1012.1 |
| 20260905202520 | 31 | 96 | 4.8 | 14.5 | 0.00 | 0.03 | 0.03 | 71 | 1012.1 |
| 20260905202419 | 31 | 116 | 6.4 | 14.5 | 0.00 | 0.03 | 0.03 | 70 | 1012.0 |
| 20260905202319 | 31 | 125 | 6.4 | 14.5 | 0.00 | 0.03 | 0.03 | 69 | 1012.1 |
| 20260905202218 | 31 | 156 | 6.4 | 14.5 | 0.00 | 0.03 | 0.03 | 68 | 1012.0 |
| 20260905202117 | 31 | 116 | 6.4 | 17.7 | 0.00 | 0.03 | 0.03 | 70 | 1012.1 |
| 20260905202017 | 31 | 150 | 6.4 | 17.7 | 0.00 | 0.03 | 0.03 | 70 | 1012.1 |
| 20260905201917 | 31 | 108 | 6.4 | 17.7 | 0.00 | 0.03 | 0.03 | 68 | 1012.1 |
| 20260905201818 | 31 | 95 | 6.4 | 17.7 | 0.00 | 0.03 | 0.03 | 67 | 1012.1 |
| 20260905201718 | 31 | 168 | 6.4 | 17.7 | 0.00 | 0.03 | 0.03 | 68 | 1012.2 |
| 20260905201617 | 31 | 77 | 4.8 | 17.7 | 0.00 | 0.03 | 0.03 | 67 | 1012.2 |
| 20260905201517 | 31 | 112 | 4.8 | 17.7 | 0.00 | 0.03 | 0.03 | 68 | 1012.2 |
| 20260905201418 | 31 | 115 | 4.8 | 17.7 | 0.00 | 0.03 | 0.03 | 68 | 1012.2 |
| 20260905201316 | 31 | 115 | 3.2 | 17.7 | 0.00 | 0.03 | 0.03 | 67 | 1012.2 |
| 20260905201220 | 31 | 102 | 3.2 | 17.7 | 0.00 | 0.03 | 0.03 | 68 | 1012.3 |
| 20260905201117 | 31 | 95 | 1.6 | 8.0 | 0.00 | 0.03 | 0.03 | 70 | 1012.3 |
| 20260905201018 | 31 | 137 | 1.6 | 9.7 | 0.00 | 0.03 | 0.03 | 68 | 1012.3 |
| 20260905200919 | 31 | 111 | 1.6 | 9.7 | 0.00 | 0.03 | 0.03 | 68 | 1012.3 |
| 20260905200818 | 31 | 88 | 1.6 | 9.7 | 0.00 | 0.03 | 0.03 | 68 | 1012.3 |
| 20260905200717 | 31 | 75 | 1.6 | 9.7 | 0.00 | 0.03 | 0.03 | 71 | 1012.2 |
| 20260905200617 | 31 | 338 | 1.6 | 9.7 | 0.00 | 0.03 | 0.03 | 69 | 1012.2 |
| 20260905200520 | 31 | 106 | 3.2 | 9.7 | 0.00 | 0.03 | 0.03 | 69 | 1012.3 |
| 20260905200416 | 31 | 106 | 3.2 | 9.7 | 0.00 | 0.03 | 0.03 | 68 | 1012.3 |
| 20260905200317 | 31 | 64 | 3.2 | 9.7 | 0.00 | 0.03 | 0.03 | 68 | 1012.3 |
| 20260905200220 | 31 | 151 | 3.2 | 9.7 | 0.00 | 0.03 | 0.03 | 70 | 1012.3 |
| 20260905200117 | 31 | 48 | 3.2 | 11.3 | 0.00 | 0.03 | 0.03 | 69 | 1012.3 |
| 20260905200017 | 31 | 55 | 3.2 | 11.3 | 0.00 | 0.03 | 0.03 | 70 | 1012.3 |
| 20260905195916 | 31 | 74 | 4.8 | 12.9 | 0.00 | 0.03 | 0.03 | 68 | 1012.3 |
| 20260905195817 | 31 | 85 | 4.8 | 12.9 | 0.00 | 0.03 | 0.03 | 69 | 1012.3 |
| 20260905195718 | 31 | 79 | 4.8 | 12.9 | 0.00 | 0.03 | 0.03 | 69 | 1012.4 |
| 20260905195619 | 31 | 101 | 4.8 | 12.9 | 0.00 | 0.03 | 0.03 | 69 | 1012.4 |
| 20260905195518 | 31 | 86 | 4.8 | 12.9 | 0.00 | 0.03 | 0.03 | 68 | 1012.4 |
| 20260905195417 | 31 | 82 | 4.8 | 12.9 | 0.00 | 0.03 | 0.03 | 67 | 1012.4 |
| 20260905195318 | 31 | 97 | 4.8 | 12.9 | 0.00 | 0.03 | 0.03 | 67 | 1012.4 |
| 20260905195217 | 31 | 129 | 4.8 | 12.9 | 0.00 | 0.03 | 0.03 | 68 | 1012.4 |
| 20260905195118 | 31 | 117 | 4.8 | 12.9 | 0.00 | 0.03 | 0.03 | 68 | 1012.4 |
| 20260905195017 | 31 | 85 | 4.8 | 12.9 | 0.00 | 0.03 | 0.03 | 68 | 1012.4 |
| 20260905194917 | 31 | 87 | 4.8 | 12.9 | 0.00 | 0.03 | 0.03 | 69 | 1012.4 |
| 20260905194822 | 31 | 101 | 4.8 | 12.9 | 0.00 | 0.03 | 0.03 | 69 | 1012.4 |
| 20260905194718 | 31 | 102 | 4.8 | 12.9 | 0.00 | 0.03 | 0.03 | 71 | 1012.4 |
| 20260905194621 | 31 | 81 | 4.8 | 12.9 | 0.00 | 0.03 | 0.03 | 69 | 1012.6 |
| 20260905194521 | 31 | 101 | 4.8 | 12.9 | 0.00 | 0.03 | 0.03 | 68 | 1012.6 |
| 20260905194419 | 31 | 54 | 3.2 | 12.9 | 0.00 | 0.03 | 0.03 | 69 | 1012.6 |
| 20260905194318 | 31 | 4 | 3.2 | 12.9 | 0.00 | 0.03 | 0.03 | 69 | 1012.6 |
| 20260905194217 | 31 | 58 | 3.2 | 12.9 | 0.00 | 0.03 | 0.03 | 69 | 1012.6 |
| 20260905194117 | 31 | 39 | 3.2 | 9.7 | 0.00 | 0.03 | 0.03 | 68 | 1012.6 |
| 20260905194018 | 31 | 59 | 3.2 | 8.0 | 0.00 | 0.03 | 0.03 | 69 | 1012.6 |
| 20260905193928 | 30 | 73 | 3.2 | 11.3 | 0.00 | 0.03 | 0.03 | 68 | 1012.7 |
| 20260905193818 | 30 | 73 | 3.2 | 11.3 | 0.00 | 0.03 | 0.03 | 68 | 1012.7 |
| 20260905193717 | 30 | 79 | 3.2 | 11.3 | 0.00 | 0.03 | 0.03 | 68 | 1012.7 |
| 20260905193622 | 30 | 115 | 3.2 | 11.3 | 0.00 | 0.03 | 0.03 | 68 | 1012.7 |
| 20260905193518 | 30 | 80 | 3.2 | 11.3 | 0.00 | 0.03 | 0.03 | 69 | 1012.7 |
| 20260905193418 | 30 | 69 | 4.8 | 11.3 | 0.00 | 0.03 | 0.03 | 69 | 1012.7 |
| 20260905193324 | 30 | 75 | 4.8 | 11.3 | 0.00 | 0.03 | 0.03 | 67 | 1012.7 |
| 20260905193217 | 30 | 105 | 4.8 | 12.9 | 0.00 | 0.03 | 0.03 | 68 | 1012.7 |
| 20260905193122 | 30 | 103 | 4.8 | 12.9 | 0.00 | 0.03 | 0.03 | 69 | 1012.7 |
| 20260905193017 | 30 | 110 | 4.8 | 12.9 | 0.00 | 0.03 | 0.03 | 67 | 1012.7 |
| 20260905192917 | 30 | 60 | 4.8 | 12.9 | 0.00 | 0.03 | 0.03 | 68 | 1012.7 |
| 20260905192820 | 30 | 101 | 4.8 | 12.9 | 0.00 | 0.03 | 0.03 | 68 | 1012.7 |
| 20260905192718 | 30 | 143 | 4.8 | 12.9 | 0.00 | 0.03 | 0.03 | 68 | 1012.7 |
| 20260905192618 | 30 | 62 | 4.8 | 12.9 | 0.00 | 0.03 | 0.03 | 68 | 1012.8 |
| 20260905192517 | 30 | 89 | 6.4 | 12.9 | 0.00 | 0.03 | 0.03 | 68 | 1012.8 |
| 20260905192417 | 30 | 93 | 4.8 | 12.9 | 0.00 | 0.03 | 0.03 | 68 | 1012.8 |
| 20260905192318 | 30 | 115 | 4.8 | 12.9 | 0.00 | 0.03 | 0.03 | 68 | 1012.9 |
| 20260905192217 | 30 | 109 | 4.8 | 11.3 | 0.00 | 0.03 | 0.03 | 69 | 1012.9 |
| 20260905192118 | 30 | 67 | 4.8 | 11.3 | 0.00 | 0.03 | 0.03 | 68 | 1012.9 |
| 20260905192018 | 30 | 123 | 4.8 | 11.3 | 0.00 | 0.03 | 0.03 | 68 | 1012.9 |
| 20260905191920 | 30 | 95 | 4.8 | 11.3 | 0.00 | 0.03 | 0.03 | 69 | 1012.8 |
| 20260905191818 | 30 | 101 | 4.8 | 11.3 | 0.00 | 0.03 | 0.03 | 68 | 1012.9 |
| 20260905191717 | 30 | 93 | 4.8 | 12.9 | 0.00 | 0.03 | 0.03 | 68 | 1012.9 |
| 20260905191618 | 30 | 132 | 4.8 | 12.9 | 0.00 | 0.03 | 0.03 | 68 | 1012.9 |
| 20260905191519 | 30 | 93 | 3.2 | 16.1 | 0.00 | 0.03 | 0.03 | 69 | 1012.9 |
| 20260905191417 | 30 | 99 | 3.2 | 16.1 | 0.00 | 0.03 | 0.03 | 68 | 1012.8 |
| 20260905191317 | 30 | 87 | 3.2 | 16.1 | 0.00 | 0.03 | 0.03 | 67 | 1012.9 |
| 20260905191218 | 30 | 262 | 3.2 | 16.1 | 0.00 | 0.03 | 0.03 | 69 | 1012.9 |
| 20260905191118 | 30 | 26 | 4.8 | 16.1 | 0.00 | 0.03 | 0.03 | 68 | 1012.8 |
| 20260905191018 | 30 | 68 | 4.8 | 16.1 | 0.00 | 0.03 | 0.03 | 67 | 1012.9 |
| 20260905190917 | 30 | 13 | 3.2 | 16.1 | 0.00 | 0.03 | 0.03 | 68 | 1012.9 |
| 20260905190816 | 30 | 54 | 3.2 | 16.1 | 0.00 | 0.03 | 0.03 | 68 | 1012.9 |
| 20260905190718 | 30 | 38 | 3.2 | 16.1 | 0.00 | 0.03 | 0.03 | 69 | 1013.0 |
| 20260905190617 | 30 | 56 | 3.2 | 16.1 | 0.00 | 0.03 | 0.03 | 69 | 1013.0 |
| 20260905190519 | 30 | 75 | 3.2 | 11.3 | 0.00 | 0.03 | 0.03 | 68 | 1013.0 |
| 20260905190417 | 30 | 335 | 1.6 | 11.3 | 0.00 | 0.03 | 0.03 | 68 | 1013.0 |
| 20260905190318 | 30 | 69 | 1.6 | 11.3 | 0.00 | 0.03 | 0.03 | 68 | 1013.0 |
| 20260905190218 | 30 | 308 | 1.6 | 11.3 | 0.00 | 0.03 | 0.03 | 70 | 1013.1 |
| 20260905190119 | 30 | 94 | 1.6 | 6.4 | 0.00 | 0.03 | 0.03 | 69 | 1013.0 |
| 20260905190017 | 30 | 29 | 1.6 | 6.4 | 0.00 | 0.03 | 0.03 | 69 | 1013.0 |
| 20260905185917 | 30 | 345 | 1.6 | 6.4 | 0.00 | 0.03 | 0.03 | 68 | 1013.0 |
| 20260905185718 | 30 | 70 | 1.6 | 8.0 | 0.00 | 0.03 | 0.03 | 68 | 1013.1 |
| 20260905185617 | 30 | 91 | 1.6 | 8.0 | 0.00 | 0.03 | 0.03 | 68 | 1013.0 |
| 20260905185517 | 30 | 25 | 1.6 | 8.0 | 0.00 | 0.03 | 0.03 | 69 | 1013.0 |
| 20260905185418 | 30 | 34 | 1.6 | 8.0 | 0.00 | 0.03 | 0.03 | 68 | 1013.0 |
| 20260905185319 | 30 | 82 | 1.6 | 8.0 | 0.00 | 0.03 | 0.03 | 69 | 1013.0 |
| 20260905185219 | 30 | 14 | 1.6 | 8.0 | 0.00 | 0.03 | 0.03 | 68 | 1013.0 |
| 20260905185117 | 30 | 347 | 1.6 | 8.0 | 0.00 | 0.03 | 0.03 | 67 | 1013.1 |
| 20260905185014 | 30 | 45 | 3.2 | 8.0 | 0.00 | 0.03 | 0.03 | 67 | 1013.0 |
| 20260905184913 | 30 | 93 | 3.2 | 8.0 | 0.00 | 0.03 | 0.03 | 67 | 1013.1 |
| 20260905184816 | 30 | 19 | 3.2 | 9.7 | 0.00 | 0.03 | 0.03 | 67 | 1013.1 |
| 20260905184708 | 30 | 81 | 3.2 | 9.7 | 0.00 | 0.03 | 0.03 | 67 | 1013.1 |
| 20260905184606 | 30 | 312 | 3.2 | 9.7 | 0.00 | 0.03 | 0.03 | 67 | 1013.2 |
| 20260905184507 | 30 | 38 | 4.8 | 9.7 | 0.00 | 0.03 | 0.03 | 67 | 1013.2 |
| 20260905184404 | 30 | 358 | 4.8 | 12.9 | 0.00 | 0.03 | 0.03 | 68 | 1013.2 |
| 20260905184306 | 30 | 115 | 4.8 | 12.9 | 0.00 | 0.03 | 0.03 | 70 | 1013.2 |
| 20260905184203 | 30 | 87 | 4.8 | 12.9 | 0.00 | 0.03 | 0.03 | 70 | 1013.2 |
| 20260905184104 | 30 | 81 | 4.8 | 12.9 | 0.00 | 0.03 | 0.03 | 68 | 1013.3 |
| 20260905183958 | 30 | 135 | 4.8 | 12.9 | 0.00 | 0.03 | 0.03 | 69 | 1013.3 |
| 20260905183854 | 30 | 105 | 6.4 | 12.9 | 0.00 | 0.03 | 0.03 | 69 | 1013.3 |
| 20260905183755 | 30 | 76 | 4.8 | 12.9 | 0.00 | 0.03 | 0.03 | 70 | 1013.2 |
| 20260905183653 | 30 | 89 | 4.8 | 12.9 | 0.00 | 0.03 | 0.03 | 68 | 1013.3 |
| 20260905183553 | 30 | 45 | 4.8 | 12.9 | 0.00 | 0.03 | 0.03 | 69 | 1013.3 |
| 20260905183452 | 30 | 122 | 4.8 | 12.9 | 0.00 | 0.03 | 0.03 | 68 | 1013.2 |
| 20260905183350 | 30 | 106 | 3.2 | 12.9 | 0.00 | 0.03 | 0.03 | 69 | 1013.2 |
| 20260905183252 | 30 | 95 | 3.2 | 11.3 | 0.00 | 0.03 | 0.03 | 69 | 1013.3 |
| 20260905183147 | 30 | 75 | 3.2 | 11.3 | 0.00 | 0.03 | 0.03 | 71 | 1013.3 |
| 20260905183047 | 30 | 90 | 4.8 | 11.3 | 0.00 | 0.03 | 0.03 | 69 | 1013.4 |
| 20260905182947 | 30 | 118 | 3.2 | 11.3 | 0.00 | 0.03 | 0.03 | 70 | 1013.4 |
| 20260905182845 | 30 | 112 | 3.2 | 11.3 | 0.00 | 0.03 | 0.03 | 69 | 1013.4 |
| 20260905182746 | 30 | 170 | 3.2 | 9.7 | 0.00 | 0.03 | 0.03 | 69 | 1013.5 |
| 20260905182645 | 30 | 23 | 4.8 | 9.7 | 0.00 | 0.03 | 0.03 | 68 | 1013.5 |
| 20260905182544 | 30 | 58 | 4.8 | 11.3 | 0.00 | 0.03 | 0.03 | 68 | 1013.5 |
| 20260905182447 | 30 | 91 | 4.8 | 12.9 | 0.00 | 0.03 | 0.03 | 67 | 1013.5 |
| 20260905182342 | 30 | 351 | 4.8 | 12.9 | 0.00 | 0.03 | 0.03 | 70 | 1013.5 |
| 20260905182243 | 30 | 99 | 4.8 | 12.9 | 0.00 | 0.03 | 0.03 | 68 | 1013.4 |
| 20260905182143 | 30 | 111 | 4.8 | 12.9 | 0.00 | 0.03 | 0.03 | 67 | 1013.5 |
| 20260905182044 | 30 | 135 | 4.8 | 12.9 | 0.00 | 0.03 | 0.03 | 67 | 1013.5 |
| 20260905181939 | 30 | 83 | 3.2 | 12.9 | 0.00 | 0.03 | 0.03 | 66 | 1013.5 |
| 20260905181838 | 30 | 347 | 3.2 | 12.9 | 0.00 | 0.03 | 0.03 | 69 | 1013.5 |
| 20260905181736 | 30 | 100 | 4.8 | 12.9 | 0.00 | 0.03 | 0.03 | 68 | 1013.5 |
| 20260905181636 | 30 | 146 | 4.8 | 12.9 | 0.00 | 0.03 | 0.03 | 69 | 1013.5 |
| 20260905181536 | 30 | 49 | 4.8 | 16.1 | 0.00 | 0.03 | 0.03 | 69 | 1013.5 |
| 20260905181434 | 30 | 175 | 4.8 | 16.1 | 0.00 | 0.03 | 0.03 | 69 | 1013.4 |
| 20260905181334 | 30 | 94 | 4.8 | 16.1 | 0.00 | 0.03 | 0.03 | 70 | 1013.5 |
| 20260905181239 | 30 | 77 | 4.8 | 16.1 | 0.00 | 0.03 | 0.03 | 70 | 1013.5 |
| 20260905181136 | 29 | 319 | 4.8 | 16.1 | 0.00 | 0.03 | 0.03 | 70 | 1013.5 |
| 20260905181033 | 29 | 52 | 6.4 | 16.1 | 0.00 | 0.03 | 0.03 | 70 | 1013.5 |
| 20260905180933 | 29 | 121 | 6.4 | 16.1 | 0.00 | 0.03 | 0.03 | 70 | 1013.5 |
| 20260905180833 | 29 | 79 | 6.4 | 16.1 | 0.00 | 0.03 | 0.03 | 68 | 1013.6 |
| 20260905180736 | 29 | 99 | 6.4 | 16.1 | 0.00 | 0.03 | 0.03 | 70 | 1013.6 |
| 20260905180634 | 29 | 90 | 6.4 | 16.1 | 0.00 | 0.03 | 0.03 | 69 | 1013.5 |
| 20260905180533 | 29 | 80 | 4.8 | 16.1 | 0.00 | 0.03 | 0.03 | 70 | 1013.6 |
| 20260905180433 | 29 | 109 | 4.8 | 14.5 | 0.00 | 0.03 | 0.03 | 69 | 1013.6 |
| 20260905180332 | 29 | 193 | 4.8 | 16.1 | 0.00 | 0.03 | 0.03 | 69 | 1013.5 |
| 20260905180232 | 29 | 334 | 4.8 | 16.1 | 0.00 | 0.03 | 0.03 | 70 | 1013.6 |
| 20260905180130 | 29 | 60 | 4.8 | 16.1 | 0.00 | 0.03 | 0.03 | 71 | 1013.6 |
| 20260905180026 | 29 | 108 | 4.8 | 16.1 | 0.00 | 0.03 | 0.03 | 68 | 1013.6 |
| 20260905175928 | 29 | 79 | 4.8 | 16.1 | 0.00 | 0.03 | 0.03 | 68 | 1013.5 |
| 20260905175828 | 29 | 356 | 4.8 | 16.1 | 0.00 | 0.03 | 0.03 | 69 | 1013.5 |
| 20260905175725 | 29 | 129 | 4.8 | 16.1 | 0.00 | 0.03 | 0.03 | 69 | 1013.5 |
| 20260905175626 | 29 | 77 | 4.8 | 16.1 | 0.00 | 0.03 | 0.03 | 69 | 1013.5 |
| 20260905175525 | 29 | 91 | 4.8 | 16.1 | 0.00 | 0.03 | 0.03 | 68 | 1013.6 |
| 20260905175422 | 29 | 28 | 4.8 | 16.1 | 0.00 | 0.03 | 0.03 | 68 | 1013.6 |
| 20260905175319 | 29 | 133 | 4.8 | 14.5 | 0.00 | 0.03 | 0.03 | 68 | 1013.6 |
| 20260905175218 | 29 | 72 | 4.8 | 14.5 | 0.00 | 0.03 | 0.03 | 69 | 1013.6 |
| 20260905175116 | 29 | 126 | 4.8 | 12.9 | 0.00 | 0.03 | 0.03 | 69 | 1013.5 |
| 20260905175016 | 29 | 17 | 4.8 | 12.9 | 0.00 | 0.03 | 0.03 | 69 | 1013.5 |
| 20260905174912 | 29 | 97 | 4.8 | 12.9 | 0.00 | 0.03 | 0.03 | 70 | 1013.5 |
| 20260905174814 | 29 | 95 | 4.8 | 12.9 | 0.00 | 0.03 | 0.03 | 69 | 1013.6 |
| 20260905174707 | 29 | 348 | 4.8 | 14.5 | 0.00 | 0.03 | 0.03 | 69 | 1013.6 |
| 20260905174609 | 29 | 84 | 4.8 | 14.5 | 0.00 | 0.03 | 0.03 | 69 | 1013.6 |
| 20260905174507 | 29 | 85 | 4.8 | 14.5 | 0.00 | 0.03 | 0.03 | 69 | 1013.6 |
| 20260905174406 | 29 | 94 | 4.8 | 14.5 | 0.00 | 0.03 | 0.03 | 70 | 1013.5 |
| 20260905174304 | 29 | 121 | 3.2 | 14.5 | 0.00 | 0.03 | 0.03 | 69 | 1013.5 |
| 20260905174207 | 29 | 106 | 3.2 | 14.5 | 0.00 | 0.03 | 0.03 | 72 | 1013.6 |
| 20260905174107 | 29 | 4 | 3.2 | 14.5 | 0.00 | 0.03 | 0.03 | 72 | 1013.6 |
| 20260905174006 | 29 | 72 | 3.2 | 14.5 | 0.00 | 0.03 | 0.03 | 70 | 1013.6 |
| 20260905173903 | 28 | 117 | 3.2 | 14.5 | 0.00 | 0.03 | 0.03 | 69 | 1013.5 |
| 20260905173805 | 28 | 50 | 3.2 | 14.5 | 0.00 | 0.03 | 0.03 | 69 | 1013.5 |
| 20260905173702 | 28 | 68 | 1.6 | 9.7 | 0.00 | 0.03 | 0.03 | 70 | 1013.5 |
| 20260905173601 | 28 | 214 | 3.2 | 9.7 | 0.00 | 0.03 | 0.03 | 70 | 1013.5 |
| 20260905173503 | 28 | 18 | 3.2 | 9.7 | 0.00 | 0.03 | 0.03 | 70 | 1013.5 |
| 20260905173402 | 28 | 87 | 3.2 | 9.7 | 0.00 | 0.03 | 0.03 | 70 | 1013.5 |
| 20260905173301 | 28 | 12 | 3.2 | 9.7 | 0.00 | 0.03 | 0.03 | 69 | 1013.5 |
| 20260905173206 | 28 | 58 | 3.2 | 11.3 | 0.00 | 0.03 | 0.03 | 70 | 1013.5 |
| 20260905173101 | 28 | 339 | 3.2 | 11.3 | 0.00 | 0.03 | 0.03 | 70 | 1013.5 |
| 20260905173002 | 28 | 66 | 4.8 | 11.3 | 0.00 | 0.03 | 0.03 | 71 | 1013.5 |
| 20260905172905 | 28 | 67 | 4.8 | 17.7 | 0.00 | 0.03 | 0.03 | 72 | 1013.5 |
| 20260905172802 | 28 | 63 | 4.8 | 17.7 | 0.00 | 0.03 | 0.03 | 72 | 1013.6 |
| 20260905172702 | 28 | 78 | 4.8 | 17.7 | 0.00 | 0.03 | 0.03 | 71 | 1013.5 |
| 20260905172559 | 28 | 70 | 4.8 | 17.7 | 0.00 | 0.03 | 0.03 | 72 | 1013.6 |
| 20260905172456 | 28 | 91 | 4.8 | 17.7 | 0.00 | 0.03 | 0.03 | 72 | 1013.6 |
| 20260905172358 | 28 | 222 | 4.8 | 17.7 | 0.00 | 0.03 | 0.03 | 71 | 1013.6 |
| 20260905172256 | 28 | 341 | 3.2 | 17.7 | 0.00 | 0.03 | 0.03 | 71 | 1013.6 |
| 20260905172152 | 28 | 20 | 3.2 | 17.7 | 0.00 | 0.03 | 0.03 | 71 | 1013.6 |
| 20260905172054 | 28 | 201 | 3.2 | 17.7 | 0.00 | 0.03 | 0.03 | 71 | 1013.6 |
| 20260905171957 | 28 | 90 | 3.2 | 17.7 | 0.00 | 0.03 | 0.03 | 72 | 1013.6 |
| 20260905171856 | 28 | 102 | 1.6 | 12.9 | 0.00 | 0.03 | 0.03 | 71 | 1013.6 |
| 20260905171753 | 28 | 342 | 1.6 | 8.0 | 0.00 | 0.03 | 0.03 | 71 | 1013.6 |
| 20260905171653 | 28 | 123 | 3.2 | 9.7 | 0.00 | 0.03 | 0.03 | 72 | 1013.6 |
| 20260905171554 | 28 | 55 | 3.2 | 11.3 | 0.00 | 0.03 | 0.03 | 70 | 1013.6 |
| 20260905171456 | 28 | 143 | 3.2 | 11.3 | 0.00 | 0.03 | 0.03 | 70 | 1013.6 |
| 20260905171357 | 28 | 32 | 3.2 | 11.3 | 0.00 | 0.03 | 0.03 | 71 | 1013.6 |
| 20260905171254 | 28 | 26 | 3.2 | 11.3 | 0.00 | 0.03 | 0.03 | 71 | 1013.6 |
| 20260905171153 | 28 | 197 | 3.2 | 11.3 | 0.00 | 0.03 | 0.03 | 71 | 1013.7 |
| 20260905171052 | 28 | 68 | 3.2 | 11.3 | 0.00 | 0.03 | 0.03 | 72 | 1013.7 |
| 20260905170953 | 28 | 104 | 3.2 | 11.3 | 0.00 | 0.03 | 0.03 | 72 | 1013.7 |
| 20260905170853 | 28 | 345 | 3.2 | 11.3 | 0.00 | 0.03 | 0.03 | 72 | 1013.7 |
| 20260905170753 | 28 | 4 | 4.8 | 11.3 | 0.00 | 0.03 | 0.03 | 72 | 1013.7 |
| 20260905170648 | 28 | 53 | 4.8 | 11.3 | 0.00 | 0.03 | 0.03 | 73 | 1013.7 |
| 20260905170546 | 28 | 38 | 4.8 | 12.9 | 0.00 | 0.03 | 0.03 | 72 | 1013.7 |
| 20260905170446 | 28 | 20 | 4.8 | 12.9 | 0.00 | 0.03 | 0.03 | 72 | 1013.7 |
| 20260905170342 | 28 | 81 | 4.8 | 12.9 | 0.00 | 0.03 | 0.03 | 73 | 1013.8 |
| 20260905170244 | 28 | 180 | 4.8 | 12.9 | 0.00 | 0.03 | 0.03 | 74 | 1013.8 |
| 20260905170141 | 28 | 83 | 3.2 | 12.9 | 0.03 | 0.03 | 0.03 | 73 | 1013.8 |
| 20260905170045 | 27 | 89 | 3.2 | 12.9 | 0.03 | 0.03 | 0.03 | 74 | 1013.9 |
| 20260905165942 | 27 | 0 | 4.8 | 12.9 | 0.03 | 0.03 | 0.03 | 74 | 1013.9 |
| 20260905165836 | 27 | 39 | 4.8 | 12.9 | 0.03 | 0.03 | 0.03 | 73 | 1013.9 |
| 20260905165734 | 27 | 60 | 3.2 | 12.9 | 0.03 | 0.03 | 0.03 | 73 | 1013.9 |
| 20260905165633 | 27 | 110 | 3.2 | 9.7 | 0.03 | 0.03 | 0.03 | 74 | 1013.8 |
| 20260905165531 | 27 | 11 | 3.2 | 9.7 | 0.03 | 0.03 | 0.03 | 74 | 1013.7 |
| 20260905165432 | 27 | 320 | 3.2 | 9.7 | 0.03 | 0.03 | 0.03 | 74 | 1013.7 |
| 20260905165331 | 27 | 281 | 3.2 | 9.7 | 0.03 | 0.03 | 0.03 | 75 | 1013.8 |
| 20260905165232 | 27 | 47 | 3.2 | 9.7 | 0.03 | 0.03 | 0.03 | 74 | 1013.8 |
| 20260905165125 | 27 | 149 | 3.2 | 9.7 | 0.03 | 0.03 | 0.03 | 75 | 1013.7 |
| 20260905165025 | 27 | 2 | 3.2 | 9.7 | 0.03 | 0.03 | 0.03 | 75 | 1013.7 |
| 20260905164925 | 27 | 32 | 1.6 | 9.7 | 0.03 | 0.03 | 0.03 | 75 | 1013.7 |
| 20260905164825 | 27 | 118 | 3.2 | 9.7 | 0.03 | 0.03 | 0.03 | 75 | 1013.7 |
| 20260905164724 | 26 | 133 | 3.2 | 9.7 | 0.03 | 0.03 | 0.03 | 76 | 1013.7 |
| 20260905164625 | 26 | 74 | 3.2 | 9.7 | 0.03 | 0.03 | 0.03 | 76 | 1013.7 |
| 20260905164525 | 26 | 105 | 3.2 | 9.7 | 0.03 | 0.03 | 0.03 | 76 | 1013.7 |
| 20260905164426 | 26 | 25 | 3.2 | 9.7 | 0.03 | 0.03 | 0.03 | 76 | 1013.7 |
| 20260905164323 | 26 | 58 | 3.2 | 9.7 | 0.03 | 0.03 | 0.03 | 76 | 1013.8 |
| 20260905164224 | 26 | 38 | 3.2 | 9.7 | 0.03 | 0.03 | 0.03 | 76 | 1013.8 |
| 20260905164122 | 26 | 109 | 3.2 | 9.7 | 0.03 | 0.03 | 0.03 | 76 | 1013.9 |
| 20260905164022 | 26 | 10 | 3.2 | 9.7 | 0.03 | 0.03 | 0.03 | 76 | 1013.9 |
| 20260905163920 | 26 | 351 | 1.6 | 9.7 | 0.03 | 0.03 | 0.03 | 76 | 1014.0 |
| 20260905163818 | 26 | 2 | 1.6 | 9.7 | 0.03 | 0.03 | 0.03 | 76 | 1014.0 |
| 20260905163720 | 25 | 108 | 1.6 | 9.7 | 0.03 | 0.03 | 0.03 | 76 | 1014.1 |
| 20260905163621 | 25 | 345 | 1.6 | 8.0 | 0.03 | 0.03 | 0.03 | 76 | 1014.1 |
| 20260905163520 | 25 | 134 | 1.6 | 8.0 | 0.03 | 0.03 | 0.03 | 76 | 1014.1 |
| 20260905163419 | 25 | 155 | 1.6 | 6.4 | 0.03 | 0.03 | 0.03 | 76 | 1014.1 |
| 20260905163316 | 25 | 20 | 1.6 | 8.0 | 0.03 | 0.03 | 0.03 | 76 | 1014.0 |
| 20260905163215 | 25 | 43 | 1.6 | 8.0 | 0.03 | 0.03 | 0.03 | 76 | 1014.0 |
| 20260905163114 | 25 | 1 | 1.6 | 8.0 | 0.03 | 0.03 | 0.03 | 76 | 1014.0 |
| 20260905163012 | 24 | 43 | 1.6 | 8.0 | 0.03 | 0.03 | 0.03 | 76 | 1014.0 |
| 20260905162914 | 24 | 45 | 1.6 | 8.0 | 0.03 | 0.03 | 0.03 | 75 | 1014.0 |
| 20260905162815 | 24 | 12 | 1.6 | 8.0 | 0.03 | 0.03 | 0.03 | 74 | 1014.0 |
| 20260905162713 | 24 | 40 | 1.6 | 8.0 | 0.03 | 0.03 | 0.03 | 75 | 1014.0 |
| 20260905162612 | 24 | 40 | 1.6 | 8.0 | 0.03 | 0.03 | 0.03 | 74 | 1014.2 |
| 20260905162508 | 24 | 61 | 1.6 | 8.0 | 0.03 | 0.03 | 0.03 | 73 | 1014.2 |
| 20260905162412 | 23 | 61 | 1.6 | 8.0 | 0.03 | 0.03 | 0.03 | 73 | 1014.2 |
| 20260905162307 | 23 | 66 | 1.6 | 8.0 | 0.03 | 0.03 | 0.03 | 72 | 1014.2 |
| 20260905162207 | 23 | 33 | 1.6 | 4.8 | 0.03 | 0.03 | 0.03 | 72 | 1014.3 |
| 20260905162106 | 23 | 42 | 1.6 | 4.8 | 0.03 | 0.03 | 0.03 | 73 | 1014.3 |
| 20260905162007 | 23 | 41 | 1.6 | 4.8 | 0.03 | 0.03 | 0.03 | 72 | 1014.3 |
| 20260905161911 | 23 | 97 | 1.6 | 4.8 | 0.03 | 0.03 | 0.03 | 73 | 1014.3 |
| 20260905161807 | 23 | 180 | 0.0 | 3.2 | 0.03 | 0.03 | 0.03 | 73 | 1014.4 |
| 20260905161705 | 23 | 180 | 0.0 | 3.2 | 0.03 | 0.03 | 0.03 | 74 | 1014.4 |
| 20260905161606 | 23 | 180 | 0.0 | 3.2 | 0.03 | 0.03 | 0.03 | 74 | 1014.4 |
| 20260905161509 | 23 | 180 | 0.0 | 3.2 | 0.03 | 0.03 | 0.03 | 75 | 1014.5 |
| 20260905161404 | 23 | 180 | 0.0 | 4.8 | 0.03 | 0.03 | 0.03 | 75 | 1014.5 |
| 20260905161303 | 23 | 180 | 1.6 | 4.8 | 0.03 | 0.03 | 0.03 | 75 | 1014.6 |
| 20260905161204 | 23 | 180 | 1.6 | 9.7 | 0.03 | 0.03 | 0.03 | 75 | 1014.6 |
| 20260905161102 | 23 | 180 | 3.2 | 11.3 | 0.03 | 0.03 | 0.03 | 75 | 1014.6 |
| 20260905160957 | 23 | 180 | 3.2 | 11.3 | 0.03 | 0.03 | 0.03 | 75 | 1014.7 |
| 20260905160855 | 23 | 180 | 3.2 | 12.9 | 0.03 | 0.03 | 0.03 | 76 | 1014.7 |
| 20260905160757 | 23 | 180 | 3.2 | 12.9 | 0.03 | 0.03 | 0.03 | 76 | 1014.7 |
| 20260905160655 | 23 | 180 | 3.2 | 12.9 | 0.03 | 0.03 | 0.03 | 76 | 1014.8 |
| 20260905160555 | 23 | 180 | 4.8 | 12.9 | 0.03 | 0.03 | 0.03 | 76 | 1014.7 |
| 20260905160446 | 23 | 180 | 4.8 | 12.9 | 0.03 | 0.03 | 0.03 | 76 | 1014.7 |
| 20260905160348 | 23 | 180 | 4.8 | 12.9 | 0.03 | 0.03 | 0.03 | 77 | 1014.7 |
| 20260905160247 | 23 | 180 | 4.8 | 17.7 | 0.03 | 0.03 | 0.03 | 77 | 1014.7 |
| 20260905160147 | 24 | 180 | 4.8 | 17.7 | 0.00 | 0.00 | 0.03 | 77 | 1014.8 |
| 20260905160042 | 24 | 305 | 4.8 | 17.7 | 0.00 | 0.00 | 0.03 | 77 | 1014.9 |
| 20260905155944 | 24 | 278 | 4.8 | 17.7 | 0.00 | 0.00 | 0.00 | 77 | 1015.0 |
| 20260905155841 | 24 | 284 | 4.8 | 17.7 | 0.00 | 0.00 | 0.00 | 77 | 1015.0 |
| 20260905155742 | 25 | 305 | 4.8 | 17.7 | 0.00 | 0.00 | 0.00 | 77 | 1015.0 |
| 20260905155635 | 25 | 276 | 6.4 | 17.7 | 0.00 | 0.00 | 0.00 | 77 | 1015.2 |
| 20260905155535 | 25 | 189 | 6.4 | 17.7 | 0.00 | 0.00 | 0.00 | 77 | 1015.3 |
| 20260905155434 | 25 | 229 | 4.8 | 17.7 | 0.00 | 0.00 | 0.00 | 76 | 1015.4 |
| 20260905155333 | 25 | 175 | 4.8 | 17.7 | 0.00 | 0.00 | 0.00 | 76 | 1015.4 |
| 20260905155230 | 25 | 175 | 4.8 | 14.5 | 0.00 | 0.00 | 0.00 | 76 | 1015.4 |
| 20260905155131 | 25 | 229 | 3.2 | 11.3 | 0.00 | 0.00 | 0.00 | 76 | 1015.4 |
| 20260905155031 | 25 | 162 | 3.2 | 11.3 | 0.00 | 0.00 | 0.00 | 76 | 1015.4 |
| 20260905154932 | 25 | 193 | 3.2 | 6.4 | 0.00 | 0.00 | 0.00 | 76 | 1015.3 |
| 20260905154832 | 26 | 171 | 1.6 | 4.8 | 0.00 | 0.00 | 0.00 | 76 | 1015.2 |
| 20260905154731 | 26 | 175 | 1.6 | 4.8 | 0.00 | 0.00 | 0.00 | 76 | 1015.1 |
| 20260905154627 | 26 | 175 | 1.6 | 4.8 | 0.00 | 0.00 | 0.00 | 76 | 1015.0 |
| 20260905154528 | 26 | 168 | 1.6 | 4.8 | 0.00 | 0.00 | 0.00 | 76 | 1015.0 |
| 20260905154428 | 26 | 149 | 1.6 | 4.8 | 0.00 | 0.00 | 0.00 | 75 | 1014.9 |
| 20260905154327 | 26 | 149 | 1.6 | 4.8 | 0.00 | 0.00 | 0.00 | 75 | 1014.9 |
| 20260905154225 | 26 | 104 | 1.6 | 4.8 | 0.00 | 0.00 | 0.00 | 74 | 1014.9 |
| 20260905154127 | 26 | 104 | 1.6 | 4.8 | 0.00 | 0.00 | 0.00 | 74 | 1014.9 |
| 20260905154026 | 26 | 74 | 1.6 | 4.8 | 0.00 | 0.00 | 0.00 | 75 | 1014.8 |
| 20260905153926 | 26 | 170 | 1.6 | 4.8 | 0.00 | 0.00 | 0.00 | 74 | 1014.7 |
| 20260905153823 | 26 | 97 | 1.6 | 4.8 | 0.00 | 0.00 | 0.00 | 73 | 1014.6 |
| 20260905153724 | 26 | 75 | 1.6 | 8.0 | 0.00 | 0.00 | 0.00 | 73 | 1014.5 |
| 20260905153624 | 27 | 75 | 1.6 | 8.0 | 0.00 | 0.00 | 0.00 | 73 | 1014.4 |
| 20260905153524 | 27 | 43 | 1.6 | 8.0 | 0.00 | 0.00 | 0.00 | 73 | 1014.3 |
| 20260905153423 | 27 | 82 | 1.6 | 8.0 | 0.00 | 0.00 | 0.00 | 73 | 1014.3 |
| 20260905153324 | 27 | 355 | 1.6 | 8.0 | 0.00 | 0.00 | 0.00 | 73 | 1014.3 |
| 20260905153224 | 27 | 348 | 1.6 | 8.0 | 0.00 | 0.00 | 0.00 | 73 | 1014.3 |
| 20260905153122 | 27 | 31 | 1.6 | 8.0 | 0.00 | 0.00 | 0.00 | 73 | 1014.3 |
| 20260905153021 | 27 | 83 | 1.6 | 8.0 | 0.00 | 0.00 | 0.00 | 74 | 1014.4 |
| 20260905152922 | 27 | 68 | 1.6 | 8.0 | 0.00 | 0.00 | 0.00 | 74 | 1014.3 |
| 20260905152816 | 27 | 113 | 1.6 | 8.0 | 0.00 | 0.00 | 0.00 | 73 | 1014.4 |
| 20260905152716 | 26 | 64 | 1.6 | 6.4 | 0.00 | 0.00 | 0.00 | 74 | 1014.4 |
| 20260905152615 | 26 | 325 | 1.6 | 6.4 | 0.00 | 0.00 | 0.00 | 75 | 1014.4 |
| 20260905152512 | 26 | 243 | 1.6 | 6.4 | 0.00 | 0.00 | 0.00 | 75 | 1014.3 |
| 20260905152412 | 26 | 295 | 1.6 | 6.4 | 0.00 | 0.00 | 0.00 | 74 | 1014.3 |
| 20260905152311 | 26 | 74 | 1.6 | 6.4 | 0.00 | 0.00 | 0.00 | 74 | 1014.3 |
| 20260905152212 | 26 | 351 | 1.6 | 6.4 | 0.00 | 0.00 | 0.00 | 74 | 1014.3 |
| 20260905152110 | 26 | 15 | 1.6 | 6.4 | 0.00 | 0.00 | 0.00 | 75 | 1014.2 |
| 20260905152005 | 26 | 6 | 1.6 | 6.4 | 0.00 | 0.00 | 0.00 | 75 | 1014.1 |
| 20260905151904 | 26 | 333 | 1.6 | 6.4 | 0.00 | 0.00 | 0.00 | 75 | 1014.1 |
| 20260905151801 | 26 | 343 | 1.6 | 6.4 | 0.00 | 0.00 | 0.00 | 75 | 1014.1 |
| 20260905151700 | 26 | 7 | 1.6 | 6.4 | 0.00 | 0.00 | 0.00 | 75 | 1014.1 |
| 20260905151601 | 26 | 1 | 1.6 | 6.4 | 0.00 | 0.00 | 0.00 | 76 | 1014.1 |
| 20260905151502 | 26 | 345 | 1.6 | 6.4 | 0.00 | 0.00 | 0.00 | 75 | 1014.1 |
| 20260905151356 | 26 | 337 | 1.6 | 6.4 | 0.00 | 0.00 | 0.00 | 75 | 1014.1 |
| 20260905151258 | 26 | 145 | 1.6 | 6.4 | 0.00 | 0.00 | 0.00 | 75 | 1014.2 |
| 20260905151155 | 26 | 21 | 1.6 | 6.4 | 0.00 | 0.00 | 0.00 | 75 | 1014.1 |
| 20260905151055 | 25 | 37 | 1.6 | 6.4 | 0.00 | 0.00 | 0.00 | 75 | 1014.1 |
| 20260905150950 | 25 | 149 | 1.6 | 6.4 | 0.00 | 0.00 | 0.00 | 76 | 1014.1 |
| 20260905150849 | 25 | 1 | 1.6 | 6.4 | 0.00 | 0.00 | 0.00 | 76 | 1014.1 |
| 20260905150748 | 25 | 6 | 1.6 | 6.4 | 0.00 | 0.00 | 0.00 | 76 | 1014.1 |
| 20260905150655 | 25 | 10 | 1.6 | 6.4 | 0.00 | 0.00 | 0.00 | 75 | 1014.0 |
| 20260905150545 | 25 | 14 | 1.6 | 6.4 | 0.00 | 0.00 | 0.00 | 75 | 1014.0 |
| 20260905150446 | 25 | 18 | 1.6 | 8.0 | 0.00 | 0.00 | 0.00 | 75 | 1014.0 |
| 20260905150342 | 25 | 160 | 1.6 | 8.0 | 0.00 | 0.00 | 0.00 | 75 | 1014.0 |
| 20260905150243 | 25 | 29 | 1.6 | 8.0 | 0.00 | 0.00 | 0.00 | 76 | 1014.0 |
| 20260905150140 | 25 | 355 | 3.2 | 9.7 | 0.00 | 0.00 | 0.00 | 76 | 1014.0 |
| 20260905150038 | 25 | 57 | 3.2 | 9.7 | 0.00 | 0.00 | 0.00 | 75 | 1013.9 |
| 20260905145939 | 25 | 12 | 3.2 | 9.7 | 0.00 | 0.00 | 0.00 | 75 | 1013.9 |
| 20260905145837 | 25 | 12 | 3.2 | 9.7 | 0.00 | 0.00 | 0.00 | 76 | 1014.0 |
| 20260905145738 | 25 | 12 | 3.2 | 9.7 | 0.00 | 0.00 | 0.00 | 75 | 1013.9 |
| 20260905145638 | 25 | 322 | 3.2 | 9.7 | 0.00 | 0.00 | 0.00 | 76 | 1014.0 |
| 20260905145534 | 25 | 343 | 3.2 | 9.7 | 0.00 | 0.00 | 0.00 | 75 | 1014.0 |
| 20260905145432 | 25 | 13 | 3.2 | 9.7 | 0.00 | 0.00 | 0.00 | 75 | 1013.9 |
| 20260905145332 | 25 | 340 | 3.2 | 9.7 | 0.00 | 0.00 | 0.00 | 75 | 1014.0 |
| 20260905145231 | 25 | 326 | 1.6 | 9.7 | 0.00 | 0.00 | 0.00 | 76 | 1013.9 |
| 20260905145128 | 25 | 348 | 1.6 | 6.4 | 0.00 | 0.00 | 0.00 | 76 | 1013.9 |
| 20260905145028 | 25 | 307 | 1.6 | 6.4 | 0.00 | 0.00 | 0.00 | 76 | 1013.8 |
| 20260905144927 | 25 | 307 | 3.2 | 6.4 | 0.00 | 0.00 | 0.00 | 76 | 1013.8 |
| 20260905144827 | 25 | 25 | 3.2 | 6.4 | 0.00 | 0.00 | 0.00 | 76 | 1013.8 |
| 20260905144727 | 25 | 8 | 3.2 | 6.4 | 0.00 | 0.00 | 0.00 | 76 | 1013.8 |
| 20260905144625 | 25 | 37 | 3.2 | 6.4 | 0.00 | 0.00 | 0.00 | 76 | 1013.8 |
| 20260905144524 | 25 | 2 | 1.6 | 6.4 | 0.00 | 0.00 | 0.00 | 76 | 1013.8 |
| 20260905144424 | 25 | 310 | 3.2 | 8.0 | 0.00 | 0.00 | 0.00 | 76 | 1013.8 |
| 20260905144320 | 25 | 334 | 3.2 | 8.0 | 0.00 | 0.00 | 0.00 | 76 | 1013.8 |
| 20260905144221 | 25 | 29 | 3.2 | 8.0 | 0.00 | 0.00 | 0.00 | 76 | 1013.8 |
| 20260905144121 | 25 | 339 | 3.2 | 8.0 | 0.00 | 0.00 | 0.00 | 76 | 1013.8 |
| 20260905144020 | 25 | 14 | 3.2 | 8.0 | 0.00 | 0.00 | 0.00 | 76 | 1013.8 |
| 20260905143920 | 25 | 18 | 3.2 | 9.7 | 0.00 | 0.00 | 0.00 | 76 | 1013.8 |
| 20260905143822 | 25 | 58 | 3.2 | 9.7 | 0.00 | 0.00 | 0.00 | 76 | 1013.8 |
| 20260905143720 | 25 | 316 | 3.2 | 11.3 | 0.00 | 0.00 | 0.00 | 76 | 1013.8 |
| 20260905143620 | 25 | 357 | 3.2 | 11.3 | 0.00 | 0.00 | 0.00 | 76 | 1013.8 |
| 20260905143519 | 25 | 355 | 4.8 | 11.3 | 0.00 | 0.00 | 0.00 | 76 | 1013.8 |
| 20260905143419 | 25 | 14 | 4.8 | 11.3 | 0.00 | 0.00 | 0.00 | 76 | 1013.9 |
| 20260905143313 | 25 | 351 | 4.8 | 11.3 | 0.00 | 0.00 | 0.00 | 76 | 1013.8 |
| 20260905143212 | 25 | 328 | 4.8 | 11.3 | 0.00 | 0.00 | 0.00 | 76 | 1013.8 |
| 20260905143111 | 25 | 343 | 4.8 | 11.3 | 0.00 | 0.00 | 0.00 | 76 | 1013.8 |
| 20260905143012 | 25 | 333 | 4.8 | 11.3 | 0.00 | 0.00 | 0.00 | 76 | 1013.8 |
| 20260905142909 | 25 | 50 | 4.8 | 11.3 | 0.00 | 0.00 | 0.00 | 76 | 1013.8 |
| 20260905142810 | 25 | 6 | 4.8 | 11.3 | 0.00 | 0.00 | 0.00 | 76 | 1013.8 |
| 20260905142706 | 25 | 337 | 4.8 | 11.3 | 0.00 | 0.00 | 0.00 | 76 | 1013.8 |
| 20260905142605 | 25 | 25 | 4.8 | 11.3 | 0.00 | 0.00 | 0.00 | 76 | 1013.7 |
| 20260905142505 | 25 | 31 | 4.8 | 11.3 | 0.00 | 0.00 | 0.00 | 76 | 1013.7 |
| 20260905142405 | 25 | 341 | 3.2 | 11.3 | 0.00 | 0.00 | 0.00 | 76 | 1013.7 |
| 20260905142306 | 25 | 0 | 3.2 | 11.3 | 0.00 | 0.00 | 0.00 | 76 | 1013.7 |
| 20260905142207 | 25 | 13 | 3.2 | 11.3 | 0.00 | 0.00 | 0.00 | 76 | 1013.7 |
| 20260905142106 | 24 | 52 | 3.2 | 11.3 | 0.00 | 0.00 | 0.00 | 77 | 1013.7 |
| 20260905142006 | 24 | 328 | 4.8 | 11.3 | 0.00 | 0.00 | 0.00 | 77 | 1013.7 |
| 20260905141902 | 24 | 143 | 4.8 | 11.3 | 0.00 | 0.00 | 0.00 | 77 | 1013.7 |
| 20260905141804 | 24 | 322 | 4.8 | 11.3 | 0.00 | 0.00 | 0.00 | 77 | 1013.8 |
| 20260905141658 | 24 | 345 | 4.8 | 14.5 | 0.00 | 0.00 | 0.00 | 77 | 1013.8 |
| 20260905141558 | 24 | 316 | 4.8 | 14.5 | 0.00 | 0.00 | 0.00 | 77 | 1013.8 |
| 20260905141456 | 24 | 327 | 4.8 | 14.5 | 0.00 | 0.00 | 0.00 | 77 | 1013.9 |
| 20260905141357 | 24 | 320 | 4.8 | 14.5 | 0.00 | 0.00 | 0.00 | 77 | 1013.9 |
| 20260905141252 | 24 | 309 | 4.8 | 14.5 | 0.00 | 0.00 | 0.00 | 77 | 1013.9 |
| 20260905141153 | 24 | 350 | 4.8 | 14.5 | 0.00 | 0.00 | 0.00 | 77 | 1013.9 |
| 20260905141054 | 24 | 330 | 3.2 | 14.5 | 0.00 | 0.00 | 0.00 | 77 | 1014.0 |
| 20260905140953 | 24 | 29 | 3.2 | 14.5 | 0.00 | 0.00 | 0.00 | 77 | 1014.0 |
| 20260905140853 | 24 | 24 | 3.2 | 14.5 | 0.00 | 0.00 | 0.00 | 77 | 1014.0 |
| 20260905140753 | 23 | 344 | 3.2 | 11.3 | 0.00 | 0.00 | 0.00 | 77 | 1014.1 |
| 20260905140647 | 23 | 334 | 1.6 | 9.7 | 0.00 | 0.00 | 0.00 | 77 | 1014.1 |
| 20260905140547 | 23 | 357 | 3.2 | 8.0 | 0.00 | 0.00 | 0.00 | 77 | 1014.1 |
| 20260905140447 | 23 | 8 | 3.2 | 9.7 | 0.00 | 0.00 | 0.00 | 77 | 1014.1 |
| 20260905140348 | 23 | 349 | 3.2 | 9.7 | 0.00 | 0.00 | 0.00 | 77 | 1014.1 |
| 20260905140243 | 23 | 352 | 3.2 | 9.7 | 0.00 | 0.00 | 0.00 | 77 | 1014.2 |
| 20260905140145 | 23 | 345 | 3.2 | 9.7 | 0.00 | 0.00 | 0.00 | 77 | 1014.2 |
| 20260905140038 | 23 | 344 | 3.2 | 9.7 | 0.00 | 0.00 | 0.00 | 77 | 1014.2 |
| 20260905135938 | 23 | 29 | 3.2 | 9.7 | 0.00 | 0.00 | 0.00 | 77 | 1014.2 |
| 20260905135837 | 23 | 29 | 3.2 | 9.7 | 0.00 | 0.00 | 0.00 | 77 | 1014.1 |
| 20260905135739 | 23 | 25 | 3.2 | 9.7 | 0.00 | 0.00 | 0.00 | 77 | 1014.1 |
| 20260905135635 | 23 | 333 | 4.8 | 12.9 | 0.00 | 0.00 | 0.00 | 77 | 1014.1 |
| 20260905135538 | 23 | 4 | 4.8 | 12.9 | 0.00 | 0.00 | 0.00 | 77 | 1014.1 |
| 20260905135433 | 23 | 333 | 4.8 | 12.9 | 0.00 | 0.00 | 0.00 | 77 | 1014.0 |
| 20260905135331 | 23 | 294 | 4.8 | 12.9 | 0.00 | 0.00 | 0.00 | 77 | 1014.0 |
| 20260905135228 | 22 | 281 | 4.8 | 12.9 | 0.00 | 0.00 | 0.00 | 77 | 1014.1 |
| 20260905135128 | 22 | 338 | 4.8 | 12.9 | 0.00 | 0.00 | 0.00 | 77 | 1014.0 |
| 20260905135024 | 22 | 316 | 4.8 | 12.9 | 0.00 | 0.00 | 0.00 | 77 | 1014.0 |
| 20260905134927 | 22 | 326 | 4.8 | 12.9 | 0.00 | 0.00 | 0.00 | 77 | 1014.0 |
| 20260905134826 | 22 | 325 | 4.8 | 12.9 | 0.00 | 0.00 | 0.00 | 77 | 1014.1 |
| 20260905134724 | 22 | 355 | 4.8 | 12.9 | 0.00 | 0.00 | 0.00 | 77 | 1014.1 |
| 20260905134627 | 22 | 318 | 4.8 | 12.9 | 0.00 | 0.00 | 0.00 | 77 | 1014.1 |
| 20260905134525 | 22 | 308 | 4.8 | 12.9 | 0.00 | 0.00 | 0.00 | 77 | 1014.0 |
| 20260905134423 | 22 | 302 | 4.8 | 12.9 | 0.00 | 0.00 | 0.00 | 77 | 1014.0 |
| 20260905134322 | 22 | 291 | 4.8 | 12.9 | 0.00 | 0.00 | 0.00 | 77 | 1014.1 |
| 20260905134225 | 22 | 303 | 4.8 | 12.9 | 0.00 | 0.00 | 0.00 | 77 | 1014.1 |
| 20260905134125 | 22 | 357 | 4.8 | 12.9 | 0.00 | 0.00 | 0.00 | 77 | 1014.1 |
| 20260905134023 | 22 | 358 | 4.8 | 12.9 | 0.00 | 0.00 | 0.00 | 76 | 1014.1 |
| 20260905133924 | 22 | 337 | 4.8 | 12.9 | 0.00 | 0.00 | 0.00 | 77 | 1014.1 |
| 20260905133823 | 22 | 3 | 4.8 | 12.9 | 0.00 | 0.00 | 0.00 | 77 | 1014.1 |
| 20260905133724 | 22 | 40 | 4.8 | 12.9 | 0.00 | 0.00 | 0.00 | 77 | 1014.1 |
| 20260905133623 | 22 | 348 | 4.8 | 12.9 | 0.00 | 0.00 | 0.00 | 77 | 1014.1 |
| 20260905133524 | 22 | 319 | 4.8 | 12.9 | 0.00 | 0.00 | 0.00 | 77 | 1014.1 |
| 20260905133416 | 22 | 348 | 4.8 | 12.9 | 0.00 | 0.00 | 0.00 | 77 | 1014.1 |
| 20260905133318 | 22 | 339 | 4.8 | 12.9 | 0.00 | 0.00 | 0.00 | 76 | 1014.1 |
| 20260905133217 | 22 | 299 | 4.8 | 11.3 | 0.00 | 0.00 | 0.00 | 76 | 1014.2 |
| 20260905133118 | 22 | 347 | 3.2 | 11.3 | 0.00 | 0.00 | 0.00 | 76 | 1014.2 |
| 20260905133011 | 21 | 342 | 4.8 | 11.3 | 0.00 | 0.00 | 0.00 | 75 | 1014.2 |
| 20260905132912 | 21 | 340 | 4.8 | 11.3 | 0.00 | 0.00 | 0.00 | 76 | 1014.3 |
| 20260905132808 | 21 | 308 | 3.2 | 11.3 | 0.00 | 0.00 | 0.00 | 76 | 1014.3 |
| 20260905132710 | 21 | 286 | 3.2 | 11.3 | 0.00 | 0.00 | 0.00 | 75 | 1014.3 |
| 20260905132605 | 21 | 333 | 3.2 | 11.3 | 0.00 | 0.00 | 0.00 | 75 | 1014.3 |
| 20260905132506 | 21 | 274 | 3.2 | 9.7 | 0.00 | 0.00 | 0.00 | 74 | 1014.3 |
| 20260905132405 | 21 | 310 | 3.2 | 8.0 | 0.00 | 0.00 | 0.00 | 74 | 1014.3 |
| 20260905132306 | 21 | 316 | 1.6 | 8.0 | 0.00 | 0.00 | 0.00 | 74 | 1014.4 |
| 20260905132200 | 21 | 341 | 1.6 | 8.0 | 0.00 | 0.00 | 0.00 | 75 | 1014.4 |
| 20260905132102 | 21 | 318 | 3.2 | 8.0 | 0.00 | 0.00 | 0.00 | 74 | 1014.5 |
| 20260905131953 | 21 | 334 | 3.2 | 9.7 | 0.00 | 0.00 | 0.00 | 73 | 1014.5 |
| 20260905131853 | 21 | 345 | 3.2 | 9.7 | 0.00 | 0.00 | 0.00 | 73 | 1014.5 |
| 20260905131752 | 21 | 320 | 3.2 | 9.7 | 0.00 | 0.00 | 0.00 | 73 | 1014.4 |
| 20260905131654 | 21 | 226 | 3.2 | 9.7 | 0.00 | 0.00 | 0.00 | 73 | 1014.4 |
| 20260905131551 | 21 | 288 | 4.8 | 11.3 | 0.00 | 0.00 | 0.00 | 73 | 1014.4 |
| 20260905131452 | 21 | 347 | 4.8 | 11.3 | 0.00 | 0.00 | 0.00 | 73 | 1014.4 |
| 20260905131348 | 21 | 4 | 4.8 | 11.3 | 0.00 | 0.00 | 0.00 | 73 | 1014.4 |
| 20260905131246 | 21 | 302 | 4.8 | 11.3 | 0.00 | 0.00 | 0.00 | 73 | 1014.5 |
| 20260905131147 | 21 | 342 | 4.8 | 11.3 | 0.00 | 0.00 | 0.00 | 73 | 1014.5 |
| 20260905131049 | 21 | 348 | 3.2 | 11.3 | 0.00 | 0.00 | 0.00 | 73 | 1014.5 |
| 20260905130942 | 20 | 180 | 3.2 | 11.3 | 0.00 | 0.00 | 0.00 | 72 | 1014.6 |
| 20260905130842 | 20 | 180 | 3.2 | 11.3 | 0.00 | 0.00 | 0.00 | 73 | 1014.7 |
| 20260905130743 | 20 | 330 | 3.2 | 11.3 | 0.00 | 0.00 | 0.00 | 72 | 1014.7 |
| 20260905130642 | 20 | 335 | 3.2 | 11.3 | 0.00 | 0.00 | 0.00 | 72 | 1014.6 |
| 20260905130535 | 20 | 334 | 3.2 | 8.0 | 0.00 | 0.00 | 0.00 | 72 | 1014.7 |
| 20260905130435 | 20 | 333 | 3.2 | 8.0 | 0.00 | 0.00 | 0.00 | 73 | 1014.8 |
| 20260905130335 | 20 | 327 | 3.2 | 8.0 | 0.00 | 0.00 | 0.00 | 73 | 1014.8 |
| 20260905130234 | 20 | 314 | 3.2 | 8.0 | 0.00 | 0.00 | 0.00 | 73 | 1014.8 |
| 20260905130131 | 20 | 310 | 3.2 | 8.0 | 0.00 | 0.00 | 0.00 | 73 | 1014.8 |
| 20260905130033 | 20 | 297 | 3.2 | 8.0 | 0.00 | 0.00 | 0.00 | 73 | 1014.8 |
| 20260905125930 | 20 | 344 | 3.2 | 8.0 | 0.00 | 0.00 | 0.00 | 73 | 1014.8 |
| 20260905125832 | 20 | 272 | 3.2 | 9.7 | 0.00 | 0.00 | 0.00 | 73 | 1014.8 |
| 20260905125725 | 20 | 249 | 3.2 | 9.7 | 0.00 | 0.00 | 0.00 | 72 | 1014.8 |
| 20260905125625 | 20 | 341 | 4.8 | 9.7 | 0.00 | 0.00 | 0.00 | 72 | 1014.8 |
| 20260905125524 | 20 | 266 | 4.8 | 9.7 | 0.00 | 0.00 | 0.00 | 72 | 1014.8 |
| 20260905125426 | 20 | 272 | 4.8 | 9.7 | 0.00 | 0.00 | 0.00 | 72 | 1014.8 |
| 20260905125324 | 20 | 277 | 4.8 | 9.7 | 0.00 | 0.00 | 0.00 | 72 | 1014.7 |
| 20260905125225 | 20 | 289 | 4.8 | 9.7 | 0.00 | 0.00 | 0.00 | 72 | 1014.7 |
| 20260905125125 | 20 | 292 | 4.8 | 9.7 | 0.00 | 0.00 | 0.00 | 72 | 1014.7 |
| 20260905125026 | 20 | 318 | 4.8 | 9.7 | 0.00 | 0.00 | 0.00 | 72 | 1014.7 |
| 20260905124922 | 20 | 297 | 4.8 | 9.7 | 0.00 | 0.00 | 0.00 | 72 | 1014.7 |
| 20260905124824 | 20 | 324 | 4.8 | 9.7 | 0.00 | 0.00 | 0.00 | 72 | 1014.8 |
| 20260905124721 | 20 | 303 | 4.8 | 9.7 | 0.00 | 0.00 | 0.00 | 72 | 1014.8 |
| 20260905124622 | 20 | 319 | 4.8 | 9.7 | 0.00 | 0.00 | 0.00 | 72 | 1014.8 |
| 20260905124516 | 20 | 317 | 4.8 | 8.0 | 0.00 | 0.00 | 0.00 | 71 | 1014.8 |
| 20260905124416 | 20 | 345 | 3.2 | 8.0 | 0.00 | 0.00 | 0.00 | 71 | 1014.8 |
| 20260905124314 | 20 | 301 | 4.8 | 8.0 | 0.00 | 0.00 | 0.00 | 71 | 1014.8 |
| 20260905124214 | 20 | 298 | 4.8 | 8.0 | 0.00 | 0.00 | 0.00 | 71 | 1014.8 |
| 20260905124112 | 20 | 322 | 3.2 | 8.0 | 0.00 | 0.00 | 0.00 | 71 | 1014.8 |
| 20260905124012 | 20 | 326 | 3.2 | 8.0 | 0.00 | 0.00 | 0.00 | 71 | 1014.9 |
| 20260905123908 | 20 | 322 | 3.2 | 9.7 | 0.00 | 0.00 | 0.00 | 71 | 1014.9 |
| 20260905123810 | 20 | 297 | 4.8 | 9.7 | 0.00 | 0.00 | 0.00 | 71 | 1014.9 |
| 20260905123704 | 20 | 303 | 4.8 | 9.7 | 0.00 | 0.00 | 0.00 | 71 | 1014.9 |
| 20260905123603 | 20 | 316 | 4.8 | 9.7 | 0.00 | 0.00 | 0.00 | 70 | 1014.9 |
| 20260905123503 | 20 | 309 | 4.8 | 9.7 | 0.00 | 0.00 | 0.00 | 71 | 1014.9 |
| 20260905123405 | 20 | 295 | 4.8 | 9.7 | 0.00 | 0.00 | 0.00 | 71 | 1014.9 |
| 20260905123303 | 20 | 318 | 3.2 | 9.7 | 0.00 | 0.00 | 0.00 | 71 | 1014.9 |
| 20260905123203 | 20 | 303 | 3.2 | 9.7 | 0.00 | 0.00 | 0.00 | 71 | 1014.9 |
| 20260905123101 | 20 | 299 | 3.2 | 9.7 | 0.00 | 0.00 | 0.00 | 71 | 1014.9 |
| 20260905123002 | 20 | 301 | 3.2 | 9.7 | 0.00 | 0.00 | 0.00 | 71 | 1014.9 |
| 20260905122900 | 20 | 180 | 3.2 | 9.7 | 0.00 | 0.00 | 0.00 | 71 | 1014.9 |
| 20260905122801 | 20 | 180 | 3.2 | 8.0 | 0.00 | 0.00 | 0.00 | 71 | 1014.9 |
| 20260905122701 | 20 | 252 | 3.2 | 11.3 | 0.00 | 0.00 | 0.00 | 71 | 1014.9 |
| 20260905122601 | 20 | 273 | 3.2 | 11.3 | 0.00 | 0.00 | 0.00 | 71 | 1014.8 |
| 20260905122454 | 20 | 299 | 3.2 | 11.3 | 0.00 | 0.00 | 0.00 | 71 | 1014.8 |
| 20260905122352 | 20 | 289 | 3.2 | 11.3 | 0.00 | 0.00 | 0.00 | 71 | 1014.8 |
| 20260905122252 | 20 | 336 | 3.2 | 11.3 | 0.00 | 0.00 | 0.00 | 71 | 1014.8 |
| 20260905122152 | 20 | 274 | 3.2 | 11.3 | 0.00 | 0.00 | 0.00 | 71 | 1014.8 |
| 20260905122046 | 20 | 283 | 4.8 | 11.3 | 0.00 | 0.00 | 0.00 | 71 | 1014.8 |
| 20260905121947 | 20 | 295 | 4.8 | 11.3 | 0.00 | 0.00 | 0.00 | 71 | 1014.8 |
| 20260905121847 | 20 | 289 | 4.8 | 11.3 | 0.00 | 0.00 | 0.00 | 71 | 1014.8 |
| 20260905121748 | 20 | 269 | 4.8 | 11.3 | 0.00 | 0.00 | 0.00 | 71 | 1014.8 |
| 20260905121640 | 20 | 313 | 4.8 | 9.7 | 0.00 | 0.00 | 0.00 | 71 | 1014.9 |
| 20260905121540 | 20 | 279 | 3.2 | 9.7 | 0.00 | 0.00 | 0.00 | 71 | 1014.9 |
| 20260905121441 | 20 | 263 | 3.2 | 9.7 | 0.00 | 0.00 | 0.00 | 71 | 1014.9 |
| 20260905121339 | 20 | 274 | 3.2 | 9.7 | 0.00 | 0.00 | 0.00 | 71 | 1014.9 |
| 20260905121239 | 20 | 268 | 3.2 | 8.0 | 0.00 | 0.00 | 0.00 | 71 | 1014.8 |
| 20260905121139 | 20 | 264 | 3.2 | 8.0 | 0.00 | 0.00 | 0.00 | 71 | 1014.8 |
| 20260905121038 | 20 | 266 | 3.2 | 8.0 | 0.00 | 0.00 | 0.00 | 71 | 1014.8 |
| 20260905120939 | 20 | 287 | 3.2 | 8.0 | 0.00 | 0.00 | 0.00 | 71 | 1014.7 |
| 20260905120838 | 20 | 273 | 3.2 | 8.0 | 0.00 | 0.00 | 0.00 | 72 | 1014.7 |
| 20260905120738 | 20 | 281 | 3.2 | 6.4 | 0.00 | 0.00 | 0.00 | 71 | 1014.6 |
| 20260905120640 | 20 | 296 | 3.2 | 6.4 | 0.00 | 0.00 | 0.00 | 71 | 1014.5 |
| 20260905120540 | 20 | 286 | 3.2 | 8.0 | 0.00 | 0.00 | 0.00 | 71 | 1014.4 |
| 20260905120433 | 20 | 277 | 3.2 | 8.0 | 0.00 | 0.00 | 0.00 | 72 | 1014.4 |
| 20260905120332 | 20 | 278 | 3.2 | 8.0 | 0.00 | 0.00 | 0.00 | 72 | 1014.3 |
| 20260905120233 | 20 | 180 | 3.2 | 8.0 | 0.00 | 0.00 | 0.00 | 72 | 1014.3 |
| 20260905120134 | 20 | 180 | 3.2 | 8.0 | 0.00 | 0.00 | 0.00 | 72 | 1014.2 |
| 20260905120033 | 20 | 180 | 3.2 | 8.0 | 0.00 | 0.00 | 0.00 | 72 | 1014.2 |
| 20260905115932 | 20 | 304 | 3.2 | 8.0 | 0.00 | 0.00 | 0.00 | 72 | 1014.2 |
| 20260905115834 | 20 | 296 | 3.2 | 8.0 | 0.00 | 0.00 | 0.00 | 72 | 1014.2 |
| 20260905115731 | 20 | 297 | 3.2 | 8.0 | 0.00 | 0.00 | 0.00 | 72 | 1014.2 |
| 20260905115632 | 20 | 180 | 3.2 | 8.0 | 0.00 | 0.00 | 0.00 | 72 | 1014.3 |
| 20260905115533 | 20 | 180 | 3.2 | 4.8 | 0.00 | 0.00 | 0.00 | 72 | 1014.3 |
| 20260905115431 | 20 | 180 | 3.2 | 4.8 | 0.00 | 0.00 | 0.00 | 72 | 1014.3 |
| 20260905115332 | 20 | 180 | 3.2 | 4.8 | 0.00 | 0.00 | 0.00 | 72 | 1014.3 |
| 20260905115230 | 20 | 180 | 3.2 | 4.8 | 0.00 | 0.00 | 0.00 | 72 | 1014.4 |
| 20260905115132 | 20 | 180 | 3.2 | 4.8 | 0.00 | 0.00 | 0.00 | 72 | 1014.4 |
| 20260905115030 | 20 | 180 | 3.2 | 4.8 | 0.00 | 0.00 | 0.00 | 72 | 1014.4 |
| 20260905114932 | 20 | 180 | 3.2 | 9.7 | 0.00 | 0.00 | 0.00 | 72 | 1014.4 |
| 20260905114832 | 20 | 180 | 3.2 | 9.7 | 0.00 | 0.00 | 0.00 | 72 | 1014.4 |
| 20260905114732 | 20 | 180 | 3.2 | 11.3 | 0.00 | 0.00 | 0.00 | 73 | 1014.4 |
| 20260905114630 | 20 | 260 | 3.2 | 11.3 | 0.00 | 0.00 | 0.00 | 73 | 1014.4 |
| 20260905114531 | 20 | 180 | 4.8 | 11.3 | 0.00 | 0.00 | 0.00 | 73 | 1014.4 |
| 20260905114430 | 20 | 269 | 4.8 | 12.9 | 0.00 | 0.00 | 0.00 | 73 | 1014.3 |
| 20260905114331 | 20 | 180 | 4.8 | 12.9 | 0.00 | 0.00 | 0.00 | 73 | 1014.4 |
| 20260905114232 | 20 | 276 | 6.4 | 16.1 | 0.00 | 0.00 | 0.00 | 73 | 1014.4 |
| 20260905114130 | 20 | 302 | 6.4 | 16.1 | 0.00 | 0.00 | 0.00 | 73 | 1014.4 |
| 20260905114029 | 20 | 290 | 6.4 | 16.1 | 0.00 | 0.00 | 0.00 | 73 | 1014.4 |
| 20260905113929 | 20 | 291 | 6.4 | 16.1 | 0.00 | 0.00 | 0.00 | 73 | 1014.4 |
| 20260905113831 | 20 | 180 | 6.4 | 16.1 | 0.00 | 0.00 | 0.00 | 73 | 1014.5 |
| 20260905113730 | 20 | 288 | 6.4 | 16.1 | 0.00 | 0.00 | 0.00 | 73 | 1014.4 |
| 20260905113629 | 20 | 299 | 6.4 | 16.1 | 0.00 | 0.00 | 0.00 | 73 | 1014.5 |
| 20260905113529 | 20 | 180 | 6.4 | 16.1 | 0.00 | 0.00 | 0.00 | 73 | 1014.4 |
| 20260905113430 | 20 | 180 | 6.4 | 16.1 | 0.00 | 0.00 | 0.00 | 73 | 1014.4 |
| 20260905113331 | 20 | 265 | 6.4 | 16.1 | 0.00 | 0.00 | 0.00 | 73 | 1014.4 |
| 20260905113230 | 20 | 299 | 6.4 | 14.5 | 0.00 | 0.00 | 0.00 | 73 | 1014.5 |
| 20260905113132 | 20 | 295 | 6.4 | 14.5 | 0.00 | 0.00 | 0.00 | 74 | 1014.5 |
| 20260905113030 | 20 | 180 | 6.4 | 14.5 | 0.00 | 0.00 | 0.00 | 74 | 1014.5 |
| 20260905112931 | 20 | 306 | 4.8 | 14.5 | 0.00 | 0.00 | 0.00 | 74 | 1014.5 |
| 20260905112831 | 20 | 180 | 4.8 | 17.7 | 0.00 | 0.00 | 0.00 | 74 | 1014.6 |
| 20260905112731 | 20 | 278 | 4.8 | 17.7 | 0.00 | 0.00 | 0.00 | 74 | 1014.5 |
| 20260905112631 | 20 | 264 | 4.8 | 17.7 | 0.00 | 0.00 | 0.00 | 74 | 1014.5 |
| 20260905112529 | 20 | 263 | 4.8 | 17.7 | 0.00 | 0.00 | 0.00 | 74 | 1014.5 |
| 20260905112430 | 20 | 180 | 4.8 | 17.7 | 0.00 | 0.00 | 0.00 | 74 | 1014.4 |
| 20260905112331 | 20 | 180 | 4.8 | 17.7 | 0.00 | 0.00 | 0.00 | 74 | 1014.4 |
| 20260905112231 | 20 | 180 | 4.8 | 17.7 | 0.00 | 0.00 | 0.00 | 74 | 1014.4 |
| 20260905112134 | 20 | 180 | 4.8 | 17.7 | 0.00 | 0.00 | 0.00 | 74 | 1014.4 |
| 20260905112031 | 20 | 180 | 4.8 | 17.7 | 0.00 | 0.00 | 0.00 | 74 | 1014.4 |
| 20260905111930 | 20 | 284 | 4.8 | 17.7 | 0.00 | 0.00 | 0.00 | 74 | 1014.4 |
| 20260905111831 | 20 | 180 | 6.4 | 20.9 | 0.00 | 0.00 | 0.00 | 74 | 1014.4 |
| 20260905111731 | 20 | 180 | 6.4 | 20.9 | 0.00 | 0.00 | 0.00 | 74 | 1014.5 |
| 20260905111630 | 20 | 180 | 6.4 | 20.9 | 0.00 | 0.00 | 0.00 | 74 | 1014.5 |
| 20260905111529 | 20 | 180 | 6.4 | 20.9 | 0.00 | 0.00 | 0.00 | 74 | 1014.5 |
| 20260905111430 | 20 | 180 | 6.4 | 20.9 | 0.00 | 0.00 | 0.00 | 74 | 1014.5 |
| 20260905111331 | 20 | 262 | 6.4 | 20.9 | 0.00 | 0.00 | 0.00 | 74 | 1014.6 |
| 20260905111230 | 20 | 283 | 6.4 | 20.9 | 0.00 | 0.00 | 0.00 | 74 | 1014.6 |
| 20260905111132 | 20 | 264 | 6.4 | 20.9 | 0.00 | 0.00 | 0.00 | 74 | 1014.6 |
| 20260905111031 | 20 | 268 | 6.4 | 20.9 | 0.00 | 0.00 | 0.00 | 74 | 1014.7 |
| 20260905110930 | 20 | 281 | 6.4 | 20.9 | 0.00 | 0.00 | 0.00 | 74 | 1014.7 |
| 20260905110831 | 20 | 260 | 6.4 | 22.5 | 0.00 | 0.00 | 0.00 | 74 | 1014.8 |
| 20260905110730 | 20 | 252 | 6.4 | 22.5 | 0.00 | 0.00 | 0.00 | 74 | 1014.8 |
| 20260905110629 | 20 | 277 | 6.4 | 22.5 | 0.00 | 0.00 | 0.00 | 74 | 1014.8 |
| 20260905110530 | 20 | 317 | 6.4 | 22.5 | 0.00 | 0.00 | 0.00 | 74 | 1014.9 |
| 20260905110431 | 20 | 289 | 8.0 | 22.5 | 0.00 | 0.00 | 0.00 | 74 | 1014.9 |
| 20260905110331 | 20 | 258 | 8.0 | 22.5 | 0.00 | 0.00 | 0.00 | 74 | 1014.8 |
| 20260905110230 | 20 | 258 | 8.0 | 22.5 | 0.00 | 0.00 | 0.00 | 74 | 1014.8 |
| 20260905110130 | 20 | 262 | 8.0 | 22.5 | 0.00 | 0.00 | 0.00 | 74 | 1014.9 |
| 20260905110031 | 20 | 255 | 8.0 | 22.5 | 0.00 | 0.00 | 0.00 | 74 | 1014.8 |
| 20260905105933 | 20 | 289 | 8.0 | 22.5 | 0.00 | 0.00 | 0.00 | 74 | 1014.8 |
| 20260905105831 | 20 | 264 | 8.0 | 17.7 | 0.00 | 0.00 | 0.00 | 74 | 1014.8 |
| 20260905105731 | 20 | 272 | 8.0 | 17.7 | 0.00 | 0.00 | 0.00 | 74 | 1014.8 |
| 20260905105632 | 20 | 335 | 8.0 | 17.7 | 0.00 | 0.00 | 0.00 | 74 | 1014.8 |
| 20260905105530 | 20 | 241 | 8.0 | 17.7 | 0.00 | 0.00 | 0.00 | 74 | 1014.8 |
| 20260905105434 | 20 | 258 | 8.0 | 17.7 | 0.00 | 0.00 | 0.00 | 74 | 1014.8 |
| 20260905105330 | 20 | 327 | 8.0 | 24.1 | 0.00 | 0.00 | 0.00 | 74 | 1014.8 |
| 20260905105232 | 20 | 281 | 8.0 | 24.1 | 0.00 | 0.00 | 0.00 | 74 | 1014.8 |
| 20260905105131 | 20 | 270 | 8.0 | 24.1 | 0.00 | 0.00 | 0.00 | 74 | 1014.8 |
| 20260905105032 | 20 | 268 | 8.0 | 24.1 | 0.00 | 0.00 | 0.00 | 74 | 1014.8 |
| 20260905104929 | 20 | 266 | 8.0 | 24.1 | 0.00 | 0.00 | 0.00 | 74 | 1014.9 |
| 20260905104830 | 20 | 297 | 9.7 | 24.1 | 0.00 | 0.00 | 0.00 | 74 | 1014.9 |
| 20260905104730 | 20 | 268 | 9.7 | 24.1 | 0.00 | 0.00 | 0.00 | 74 | 1014.9 |
| 20260905104630 | 20 | 232 | 9.7 | 24.1 | 0.00 | 0.00 | 0.00 | 74 | 1014.9 |
| 20260905104531 | 20 | 251 | 9.7 | 24.1 | 0.00 | 0.00 | 0.00 | 74 | 1014.8 |
| 20260905104430 | 20 | 258 | 8.0 | 24.1 | 0.00 | 0.00 | 0.00 | 74 | 1014.8 |
| 20260905104329 | 20 | 256 | 8.0 | 17.7 | 0.00 | 0.00 | 0.00 | 75 | 1014.8 |
| 20260905104233 | 20 | 269 | 8.0 | 17.7 | 0.00 | 0.00 | 0.00 | 75 | 1014.9 |
| 20260905104131 | 20 | 269 | 8.0 | 17.7 | 0.00 | 0.00 | 0.00 | 74 | 1014.9 |
| 20260905104030 | 20 | 267 | 8.0 | 17.7 | 0.00 | 0.00 | 0.00 | 75 | 1015.0 |
| 20260905103930 | 20 | 265 | 6.4 | 17.7 | 0.00 | 0.00 | 0.00 | 75 | 1015.1 |
| 20260905103831 | 20 | 275 | 4.8 | 14.5 | 0.00 | 0.00 | 0.00 | 74 | 1015.1 |
| 20260905103732 | 20 | 337 | 4.8 | 14.5 | 0.00 | 0.00 | 0.00 | 74 | 1015.1 |
| 20260905103629 | 20 | 258 | 4.8 | 14.5 | 0.00 | 0.00 | 0.00 | 74 | 1015.2 |
| 20260905103532 | 20 | 262 | 3.2 | 14.5 | 0.00 | 0.00 | 0.00 | 75 | 1015.1 |
| 20260905103429 | 20 | 285 | 3.2 | 14.5 | 0.00 | 0.00 | 0.00 | 75 | 1015.1 |
| 20260905103331 | 20 | 264 | 3.2 | 14.5 | 0.00 | 0.00 | 0.00 | 75 | 1015.2 |
| 20260905103232 | 20 | 272 | 3.2 | 11.3 | 0.00 | 0.00 | 0.00 | 74 | 1015.3 |
| 20260905103132 | 20 | 258 | 3.2 | 11.3 | 0.00 | 0.00 | 0.00 | 74 | 1015.4 |
| 20260905103030 | 20 | 243 | 1.6 | 8.0 | 0.00 | 0.00 | 0.00 | 74 | 1015.4 |
| 20260905102932 | 20 | 260 | 1.6 | 8.0 | 0.00 | 0.00 | 0.00 | 74 | 1015.5 |
| 20260905102831 | 20 | 221 | 3.2 | 8.0 | 0.00 | 0.00 | 0.00 | 74 | 1015.5 |
| 20260905102731 | 20 | 221 | 3.2 | 12.9 | 0.00 | 0.00 | 0.00 | 74 | 1015.4 |
| 20260905102630 | 20 | 211 | 3.2 | 12.9 | 0.00 | 0.00 | 0.00 | 74 | 1015.4 |
| 20260905102531 | 20 | 171 | 4.8 | 12.9 | 0.00 | 0.00 | 0.00 | 74 | 1015.4 |
| 20260905102430 | 20 | 266 | 4.8 | 14.5 | 0.00 | 0.00 | 0.00 | 74 | 1015.4 |
| 20260905102329 | 20 | 210 | 4.8 | 16.1 | 0.00 | 0.00 | 0.00 | 74 | 1015.4 |
| 20260905102230 | 20 | 245 | 6.4 | 20.9 | 0.00 | 0.00 | 0.00 | 74 | 1015.5 |
| 20260905102130 | 20 | 259 | 8.0 | 25.7 | 0.00 | 0.00 | 0.00 | 74 | 1015.5 |
| 20260905102030 | 20 | 180 | 8.0 | 25.7 | 0.00 | 0.00 | 0.00 | 74 | 1015.5 |
| 20260905101930 | 20 | 150 | 8.0 | 25.7 | 0.00 | 0.00 | 0.00 | 74 | 1015.6 |
| 20260905101832 | 20 | 180 | 9.7 | 25.7 | 0.00 | 0.00 | 0.00 | 74 | 1015.6 |
| 20260905101729 | 20 | 272 | 9.7 | 25.7 | 0.00 | 0.00 | 0.00 | 74 | 1015.4 |
| 20260905101629 | 20 | 258 | 9.7 | 25.7 | 0.00 | 0.00 | 0.00 | 74 | 1015.4 |
| 20260905101531 | 20 | 285 | 9.7 | 25.7 | 0.00 | 0.00 | 0.00 | 75 | 1015.3 |
| 20260905101431 | 20 | 270 | 9.7 | 25.7 | 0.00 | 0.00 | 0.00 | 75 | 1015.3 |
| 20260905101330 | 20 | 271 | 9.7 | 25.7 | 0.00 | 0.00 | 0.00 | 75 | 1015.3 |
| 20260905101230 | 20 | 327 | 9.7 | 25.7 | 0.00 | 0.00 | 0.00 | 75 | 1015.3 |
| 20260905101132 | 20 | 180 | 9.7 | 22.5 | 0.00 | 0.00 | 0.00 | 75 | 1015.3 |
| 20260905101031 | 20 | 180 | 9.7 | 22.5 | 0.00 | 0.00 | 0.00 | 75 | 1015.2 |
| 20260905100930 | 20 | 180 | 9.7 | 22.5 | 0.00 | 0.00 | 0.00 | 75 | 1015.1 |
| 20260905100833 | 20 | 180 | 11.3 | 22.5 | 0.00 | 0.00 | 0.00 | 75 | 1015.1 |
| 20260905100732 | 20 | 180 | 9.7 | 22.5 | 0.00 | 0.00 | 0.00 | 75 | 1015.1 |
| 20260905100630 | 20 | 180 | 9.7 | 22.5 | 0.00 | 0.00 | 0.00 | 75 | 1015.1 |
| 20260905100529 | 20 | 180 | 8.0 | 22.5 | 0.00 | 0.00 | 0.00 | 75 | 1015.2 |
| 20260905100432 | 20 | 267 | 8.0 | 22.5 | 0.00 | 0.00 | 0.00 | 75 | 1015.3 |
| 20260905100330 | 20 | 180 | 8.0 | 22.5 | 0.00 | 0.00 | 0.00 | 76 | 1015.3 |
| 20260905100229 | 20 | 180 | 8.0 | 22.5 | 0.00 | 0.00 | 0.00 | 76 | 1015.3 |
| 20260905100130 | 20 | 180 | 8.0 | 17.7 | 0.00 | 0.00 | 0.00 | 76 | 1015.3 |
| 20260905100028 | 20 | 180 | 8.0 | 19.3 | 0.00 | 0.00 | 0.00 | 76 | 1015.2 |
| 20260905095926 | 20 | 180 | 8.0 | 19.3 | 0.00 | 0.00 | 0.00 | 76 | 1015.2 |
| 20260905095719 | 20 | 180 | 8.0 | 19.3 | 0.00 | 0.00 | 0.00 | 76 | 1015.2 |
| 20260905095517 | 20 | 180 | 8.0 | 19.3 | 0.00 | 0.00 | 0.00 | 76 | 1015.2 |
| 20260905095417 | 20 | 180 | 8.0 | 29.0 | 0.00 | 0.00 | 0.00 | 77 | 1015.2 |
| 20260905095316 | 20 | 180 | 9.7 | 29.0 | 0.00 | 0.00 | 0.00 | 77 | 1015.3 |
| 20260905095216 | 20 | 292 | 9.7 | 29.0 | 0.00 | 0.00 | 0.00 | 77 | 1015.2 |
| 20260905095114 | 20 | 180 | 9.7 | 29.0 | 0.00 | 0.00 | 0.00 | 77 | 1015.3 |
| 20260905095014 | 20 | 180 | 9.7 | 29.0 | 0.00 | 0.00 | 0.00 | 77 | 1015.3 |
| 20260905094913 | 20 | 180 | 9.7 | 29.0 | 0.00 | 0.00 | 0.00 | 77 | 1015.2 |
| 20260905094812 | 20 | 180 | 9.7 | 29.0 | 0.00 | 0.00 | 0.00 | 77 | 1015.3 |
| 20260905094710 | 20 | 180 | 9.7 | 29.0 | 0.00 | 0.00 | 0.00 | 77 | 1015.3 |
| 20260905094612 | 20 | 304 | 9.7 | 29.0 | 0.00 | 0.00 | 0.00 | 77 | 1015.3 |
| 20260905094509 | 20 | 180 | 9.7 | 29.0 | 0.00 | 0.00 | 0.00 | 77 | 1015.3 |
| 20260905094408 | 20 | 180 | 9.7 | 29.0 | 0.00 | 0.00 | 0.00 | 77 | 1015.2 |
| 20260905094304 | 20 | 180 | 9.7 | 29.0 | 0.00 | 0.00 | 0.00 | 78 | 1015.2 |
| 20260905094203 | 20 | 180 | 9.7 | 24.1 | 0.00 | 0.00 | 0.00 | 78 | 1015.2 |
| 20260905094103 | 20 | 180 | 9.7 | 32.2 | 0.00 | 0.00 | 0.00 | 78 | 1015.1 |
| 20260905094007 | 20 | 180 | 11.3 | 32.2 | 0.00 | 0.00 | 0.00 | 78 | 1015.1 |
| 20260905093906 | 21 | 180 | 11.3 | 32.2 | 0.00 | 0.00 | 0.00 | 78 | 1015.1 |
| 20260905093803 | 21 | 180 | 11.3 | 32.2 | 0.00 | 0.00 | 0.00 | 78 | 1015.1 |
| 20260905093703 | 21 | 260 | 11.3 | 32.2 | 0.00 | 0.00 | 0.00 | 78 | 1015.2 |
| 20260905093603 | 21 | 180 | 9.7 | 32.2 | 0.00 | 0.00 | 0.00 | 78 | 1015.3 |
| 20260905093506 | 21 | 180 | 11.3 | 32.2 | 0.00 | 0.00 | 0.00 | 78 | 1015.3 |
| 20260905093401 | 21 | 180 | 11.3 | 32.2 | 0.00 | 0.00 | 0.00 | 78 | 1015.2 |
| 20260905093259 | 21 | 273 | 11.3 | 32.2 | 0.00 | 0.00 | 0.00 | 78 | 1015.2 |
| 20260905093156 | 21 | 278 | 9.7 | 32.2 | 0.00 | 0.00 | 0.00 | 78 | 1015.2 |
| 20260905093057 | 21 | 292 | 9.7 | 24.1 | 0.00 | 0.00 | 0.00 | 78 | 1015.2 |
| 20260905092958 | 21 | 180 | 9.7 | 19.3 | 0.00 | 0.00 | 0.00 | 78 | 1015.2 |
| 20260905092858 | 21 | 180 | 9.7 | 19.3 | 0.00 | 0.00 | 0.00 | 78 | 1015.2 |
| 20260905092756 | 21 | 213 | 9.7 | 19.3 | 0.00 | 0.00 | 0.00 | 78 | 1015.3 |
| 20260905092655 | 21 | 255 | 9.7 | 19.3 | 0.00 | 0.00 | 0.00 | 78 | 1015.3 |
| 20260905092554 | 21 | 224 | 11.3 | 19.3 | 0.00 | 0.00 | 0.00 | 78 | 1015.2 |
| 20260905092451 | 21 | 180 | 11.3 | 27.4 | 0.00 | 0.00 | 0.00 | 78 | 1015.1 |
| 20260905092352 | 21 | 180 | 11.3 | 27.4 | 0.00 | 0.00 | 0.00 | 78 | 1015.1 |
| 20260905092246 | 21 | 270 | 9.7 | 27.4 | 0.00 | 0.00 | 0.00 | 78 | 1015.2 |
| 20260905092147 | 21 | 276 | 11.3 | 27.4 | 0.00 | 0.00 | 0.00 | 78 | 1015.1 |
| 20260905092046 | 21 | 225 | 11.3 | 27.4 | 0.00 | 0.00 | 0.00 | 77 | 1015.1 |
| 20260905091945 | 21 | 262 | 11.3 | 27.4 | 0.00 | 0.00 | 0.00 | 77 | 1015.2 |
| 20260905091844 | 21 | 326 | 9.7 | 27.4 | 0.00 | 0.00 | 0.00 | 78 | 1015.1 |
| 20260905091743 | 21 | 274 | 11.3 | 27.4 | 0.00 | 0.00 | 0.00 | 78 | 1015.1 |
| 20260905091640 | 21 | 275 | 11.3 | 27.4 | 0.00 | 0.00 | 0.00 | 78 | 1015.1 |
| 20260905091540 | 21 | 314 | 11.3 | 27.4 | 0.00 | 0.00 | 0.00 | 77 | 1015.1 |
| 20260905091436 | 21 | 257 | 11.3 | 25.7 | 0.00 | 0.00 | 0.00 | 77 | 1015.1 |
| 20260905091335 | 21 | 253 | 11.3 | 25.7 | 0.00 | 0.00 | 0.00 | 77 | 1015.2 |
| 20260905091233 | 21 | 244 | 12.9 | 30.6 | 0.00 | 0.00 | 0.00 | 77 | 1015.1 |
| 20260905091132 | 21 | 261 | 12.9 | 32.2 | 0.00 | 0.00 | 0.00 | 77 | 1015.1 |
| 20260905091032 | 21 | 277 | 11.3 | 32.2 | 0.00 | 0.00 | 0.00 | 76 | 1015.0 |
| 20260905090932 | 21 | 299 | 11.3 | 32.2 | 0.00 | 0.00 | 0.00 | 76 | 1015.1 |
| 20260905090828 | 21 | 283 | 11.3 | 32.2 | 0.00 | 0.00 | 0.00 | 75 | 1015.2 |
| 20260905090728 | 21 | 246 | 11.3 | 32.2 | 0.00 | 0.00 | 0.00 | 73 | 1015.1 |
| 20260905090627 | 22 | 235 | 11.3 | 32.2 | 0.00 | 0.00 | 0.00 | 72 | 1015.2 |
| 20260905090525 | 22 | 238 | 11.3 | 32.2 | 0.00 | 0.00 | 0.00 | 71 | 1015.0 |
| 20260905090426 | 22 | 262 | 9.7 | 32.2 | 0.00 | 0.00 | 0.00 | 67 | 1015.0 |
| 20260905090325 | 22 | 303 | 8.0 | 32.2 | 0.00 | 0.00 | 0.00 | 66 | 1014.9 |
| 20260905090225 | 22 | 254 | 6.4 | 32.2 | 0.00 | 0.00 | 0.00 | 64 | 1014.6 |
| 20260905090125 | 22 | 226 | 4.8 | 19.3 | 0.00 | 0.00 | 0.00 | 63 | 1014.5 |
| 20260905090026 | 22 | 324 | 3.2 | 19.3 | 0.00 | 0.00 | 0.00 | 63 | 1014.7 |
| 20260905085928 | 22 | 228 | 3.2 | 19.3 | 0.00 | 0.00 | 0.00 | 63 | 1014.7 |
| 20260905085825 | 22 | 231 | 3.2 | 17.7 | 0.00 | 0.00 | 0.00 | 63 | 1014.7 |
| 20260905085725 | 22 | 249 | 1.6 | 14.5 | 0.00 | 0.00 | 0.00 | 63 | 1014.7 |
| 20260905085624 | 22 | 161 | 1.6 | 11.3 | 0.00 | 0.00 | 0.00 | 63 | 1014.6 |
| 20260905085524 | 22 | 180 | 0.0 | 3.2 | 0.00 | 0.00 | 0.00 | 63 | 1014.2 |
| 20260905085419 | 22 | 180 | 0.0 | 3.2 | 0.00 | 0.00 | 0.00 | 63 | 1014.0 |
| 20260905085317 | 22 | 180 | 0.0 | 3.2 | 0.00 | 0.00 | 0.00 | 63 | 1014.0 |
| 20260905085218 | 22 | 180 | 0.0 | 3.2 | 0.00 | 0.00 | 0.00 | 63 | 1014.0 |
| 20260905085118 | 22 | 180 | 0.0 | 3.2 | 0.00 | 0.00 | 0.00 | 63 | 1013.9 |
| 20260905085020 | 22 | 180 | 0.0 | 3.2 | 0.00 | 0.00 | 0.00 | 63 | 1013.9 |
| 20260905084916 | 22 | 180 | 1.6 | 3.2 | 0.00 | 0.00 | 0.00 | 63 | 1013.9 |
| 20260905084817 | 22 | 180 | 1.6 | 3.2 | 0.00 | 0.00 | 0.00 | 63 | 1013.9 |
| 20260905084714 | 22 | 180 | 1.6 | 3.2 | 0.00 | 0.00 | 0.00 | 63 | 1013.9 |
| 20260905084615 | 22 | 180 | 1.6 | 3.2 | 0.00 | 0.00 | 0.00 | 63 | 1013.9 |
| 20260905084513 | 22 | 180 | 1.6 | 3.2 | 0.00 | 0.00 | 0.00 | 63 | 1013.9 |
| 20260905084413 | 22 | 180 | 1.6 | 3.2 | 0.00 | 0.00 | 0.00 | 63 | 1013.9 |
| 20260905084312 | 22 | 180 | 1.6 | 3.2 | 0.00 | 0.00 | 0.00 | 64 | 1013.9 |
| 20260905084212 | 22 | 180 | 1.6 | 3.2 | 0.00 | 0.00 | 0.00 | 64 | 1013.9 |
| 20260905084111 | 22 | 180 | 1.6 | 3.2 | 0.00 | 0.00 | 0.00 | 64 | 1013.9 |
| 20260905084006 | 22 | 180 | 1.6 | 3.2 | 0.00 | 0.00 | 0.00 | 64 | 1013.8 |
| 20260905083905 | 22 | 180 | 0.0 | 3.2 | 0.00 | 0.00 | 0.00 | 64 | 1013.8 |
| 20260905083757 | 22 | 180 | 0.0 | 3.2 | 0.00 | 0.00 | 0.00 | 64 | 1013.8 |
| 20260905083657 | 22 | 180 | 0.0 | 3.2 | 0.00 | 0.00 | 0.00 | 64 | 1013.8 |
| 20260905083555 | 22 | 180 | 0.0 | 3.2 | 0.00 | 0.00 | 0.00 | 64 | 1013.7 |